| time (UTC) | temp F | wind direction | speed MPH | gust MPH | rain 1hr in | rain 24hr in | rain mn in | humidity % | barometer mb |
| 20260904045504 | 80 | 141 | 5.0 | 13.0 | 0.00 | 0.00 | 0.00 | 77 | 1012.2 |
| 20260904045306 | 80 | 138 | 5.0 | 13.0 | 0.00 | 0.00 | 0.00 | 77 | 1012.2 |
| 20260904045104 | 80 | 139 | 5.0 | 13.0 | 0.00 | 0.00 | 0.00 | 77 | 1012.1 |
| 20260904045003 | 80 | 141 | 6.0 | 13.0 | 0.00 | 0.00 | 0.00 | 77 | 1012.1 |
| 20260904044904 | 80 | 141 | 6.0 | 13.0 | 0.00 | 0.00 | 0.00 | 77 | 1012.1 |
| 20260904044804 | 80 | 142 | 6.0 | 12.0 | 0.00 | 0.00 | 0.00 | 77 | 1012.1 |
| 20260904044704 | 80 | 142 | 6.0 | 12.0 | 0.00 | 0.00 | 0.00 | 77 | 1012.1 |
| 20260904044404 | 80 | 143 | 6.0 | 12.0 | 0.00 | 0.00 | 0.00 | 76 | 1012.1 |
| 20260904044304 | 80 | 143 | 6.0 | 12.0 | 0.00 | 0.00 | 0.00 | 76 | 1012.1 |
| 20260904044204 | 80 | 143 | 6.0 | 12.0 | 0.00 | 0.00 | 0.00 | 76 | 1012.1 |
| 20260904044004 | 80 | 142 | 6.0 | 12.0 | 0.00 | 0.00 | 0.00 | 76 | 1012.0 |
| 20260904043904 | 80 | 142 | 6.0 | 12.0 | 0.00 | 0.00 | 0.00 | 76 | 1012.1 |
| 20260904043604 | 80 | 140 | 6.0 | 12.0 | 0.00 | 0.00 | 0.00 | 76 | 1012.1 |
| 20260904043404 | 80 | 141 | 6.0 | 12.0 | 0.00 | 0.00 | 0.00 | 76 | 1012.1 |
| 20260904043304 | 80 | 140 | 6.0 | 12.0 | 0.00 | 0.00 | 0.00 | 76 | 1012.1 |
| 20260904043204 | 80 | 141 | 6.0 | 12.0 | 0.00 | 0.00 | 0.00 | 76 | 1012.1 |
| 20260904043104 | 80 | 140 | 7.0 | 15.0 | 0.00 | 0.00 | 0.00 | 76 | 1012.1 |
| 20260904043004 | 80 | 139 | 6.0 | 15.0 | 0.00 | 0.00 | 0.00 | 76 | 1012.1 |
| 20260904042705 | 80 | 140 | 7.0 | 15.0 | 0.00 | 0.00 | 0.00 | 75 | 1012.1 |
| 20260904042603 | 80 | 140 | 7.0 | 15.0 | 0.00 | 0.00 | 0.00 | 75 | 1012.1 |
| 20260904042505 | 80 | 140 | 7.0 | 15.0 | 0.00 | 0.00 | 0.00 | 75 | 1012.1 |
| 20260904042404 | 80 | 139 | 7.0 | 15.0 | 0.00 | 0.00 | 0.00 | 75 | 1012.0 |
| 20260904042204 | 80 | 140 | 6.0 | 15.0 | 0.00 | 0.00 | 0.00 | 75 | 1012.0 |
| 20260904042104 | 80 | 141 | 6.0 | 12.0 | 0.00 | 0.00 | 0.00 | 75 | 1012.0 |
| 20260904041904 | 80 | 143 | 7.0 | 12.0 | 0.00 | 0.00 | 0.00 | 75 | 1012.0 |
| 20260904041805 | 80 | 144 | 7.0 | 12.0 | 0.00 | 0.00 | 0.00 | 75 | 1012.0 |
| 20260904041603 | 80 | 146 | 6.0 | 12.0 | 0.00 | 0.00 | 0.00 | 74 | 1012.0 |
| 20260904041504 | 80 | 146 | 6.0 | 12.0 | 0.00 | 0.00 | 0.00 | 74 | 1012.0 |
| 20260904041404 | 80 | 143 | 6.0 | 12.0 | 0.00 | 0.00 | 0.00 | 74 | 1012.0 |
| 20260904041104 | 80 | 143 | 6.0 | 12.0 | 0.00 | 0.00 | 0.00 | 74 | 1012.0 |
| 20260904041004 | 80 | 143 | 6.0 | 12.0 | 0.00 | 0.00 | 0.00 | 74 | 1012.1 |
| 20260904040904 | 80 | 141 | 6.0 | 12.0 | 0.00 | 0.00 | 0.00 | 74 | 1012.1 |
| 20260904040804 | 80 | 139 | 6.0 | 12.0 | 0.00 | 0.00 | 0.00 | 74 | 1012.0 |
| 20260904040704 | 80 | 138 | 6.0 | 13.0 | 0.00 | 0.00 | 0.00 | 74 | 1012.1 |
| 20260904040603 | 80 | 136 | 6.0 | 13.0 | 0.00 | 0.00 | 0.00 | 74 | 1012.1 |
| 20260904040403 | 80 | 139 | 6.0 | 13.0 | 0.00 | 0.00 | 0.00 | 74 | 1012.0 |
| 20260904040304 | 80 | 139 | 5.0 | 13.0 | 0.00 | 0.00 | 0.00 | 73 | 1012.1 |
| 20260904040203 | 80 | 138 | 5.0 | 13.0 | 0.00 | 0.00 | 0.00 | 73 | 1012.1 |
| 20260904040104 | 80 | 139 | 5.0 | 13.0 | 0.00 | 0.00 | 0.00 | 73 | 1012.0 |
| 20260904035904 | 80 | 138 | 5.0 | 13.0 | 0.00 | 0.00 | 0.00 | 73 | 1012.0 |
| 20260904035803 | 80 | 140 | 5.0 | 13.0 | 0.00 | 0.00 | 0.00 | 73 | 1012.0 |
| 20260904035704 | 80 | 139 | 5.0 | 13.0 | 0.00 | 0.00 | 0.00 | 73 | 1012.0 |
| 20260904035603 | 80 | 141 | 5.0 | 13.0 | 0.00 | 0.00 | 0.00 | 73 | 1012.1 |
| 20260904035403 | 80 | 140 | 6.0 | 10.0 | 0.00 | 0.00 | 0.00 | 73 | 1012.1 |
| 20260904035203 | 80 | 140 | 6.0 | 10.0 | 0.00 | 0.00 | 0.00 | 73 | 1012.1 |
| 20260904035103 | 80 | 140 | 6.0 | 11.0 | 0.00 | 0.00 | 0.00 | 73 | 1012.1 |
| 20260904034903 | 80 | 141 | 7.0 | 12.0 | 0.00 | 0.00 | 0.00 | 73 | 1012.1 |
| 20260904034804 | 81 | 141 | 7.0 | 12.0 | 0.00 | 0.00 | 0.00 | 73 | 1012.1 |
| 20260904034703 | 81 | 141 | 7.0 | 12.0 | 0.00 | 0.00 | 0.00 | 72 | 1012.1 |
| 20260904034604 | 81 | 141 | 7.0 | 12.0 | 0.00 | 0.00 | 0.00 | 72 | 1012.2 |
| 20260904034504 | 81 | 141 | 7.0 | 13.0 | 0.00 | 0.00 | 0.00 | 72 | 1012.1 |
| 20260904034403 | 81 | 140 | 7.0 | 13.0 | 0.00 | 0.00 | 0.00 | 72 | 1012.2 |
| 20260904034303 | 81 | 140 | 7.0 | 13.0 | 0.00 | 0.00 | 0.00 | 72 | 1012.1 |
| 20260904034104 | 81 | 139 | 7.0 | 13.0 | 0.00 | 0.00 | 0.00 | 72 | 1012.1 |
| 20260904034004 | 81 | 138 | 6.0 | 14.0 | 0.00 | 0.00 | 0.00 | 72 | 1012.1 |
| 20260904033904 | 81 | 137 | 6.0 | 14.0 | 0.00 | 0.00 | 0.00 | 72 | 1012.1 |
| 20260904033803 | 81 | 137 | 7.0 | 14.0 | 0.00 | 0.00 | 0.00 | 72 | 1012.1 |
| 20260904033503 | 81 | 139 | 6.0 | 14.0 | 0.00 | 0.00 | 0.00 | 72 | 1012.1 |
| 20260904033404 | 81 | 140 | 6.0 | 14.0 | 0.00 | 0.00 | 0.00 | 72 | 1012.1 |
| 20260904033303 | 81 | 140 | 6.0 | 14.0 | 0.00 | 0.00 | 0.00 | 71 | 1012.1 |
| 20260904033204 | 81 | 139 | 6.0 | 14.0 | 0.00 | 0.00 | 0.00 | 71 | 1012.0 |
| 20260904032903 | 81 | 145 | 7.0 | 13.0 | 0.00 | 0.00 | 0.00 | 71 | 1012.1 |
| 20260904032804 | 81 | 147 | 7.0 | 13.0 | 0.00 | 0.00 | 0.00 | 71 | 1012.0 |
| 20260904032703 | 81 | 146 | 6.0 | 13.0 | 0.00 | 0.00 | 0.00 | 71 | 1012.0 |
| 20260904032604 | 81 | 147 | 7.0 | 13.0 | 0.00 | 0.00 | 0.00 | 71 | 1012.0 |
| 20260904032504 | 81 | 148 | 7.0 | 13.0 | 0.00 | 0.00 | 0.00 | 71 | 1012.0 |
| 20260904032403 | 81 | 148 | 7.0 | 15.0 | 0.00 | 0.00 | 0.00 | 71 | 1012.0 |
| 20260904032305 | 81 | 147 | 7.0 | 15.0 | 0.00 | 0.00 | 0.00 | 71 | 1011.9 |
| 20260904032204 | 81 | 148 | 7.0 | 15.0 | 0.00 | 0.00 | 0.00 | 71 | 1012.0 |
| 20260904032103 | 81 | 146 | 7.0 | 15.0 | 0.00 | 0.00 | 0.00 | 71 | 1012.0 |
| 20260904032004 | 81 | 146 | 7.0 | 15.0 | 0.00 | 0.00 | 0.00 | 71 | 1012.0 |
| 20260904031904 | 81 | 145 | 7.0 | 15.0 | 0.00 | 0.00 | 0.00 | 70 | 1012.0 |
| 20260904031804 | 81 | 144 | 7.0 | 15.0 | 0.00 | 0.00 | 0.00 | 70 | 1012.0 |
| 20260904031704 | 81 | 145 | 6.0 | 15.0 | 0.00 | 0.00 | 0.00 | 70 | 1011.9 |
| 20260904031604 | 81 | 145 | 6.0 | 15.0 | 0.00 | 0.00 | 0.00 | 70 | 1012.0 |
| 20260904031503 | 81 | 143 | 6.0 | 15.0 | 0.00 | 0.00 | 0.00 | 70 | 1012.0 |
| 20260904031404 | 81 | 142 | 6.0 | 12.0 | 0.00 | 0.00 | 0.00 | 70 | 1012.0 |
| 20260904031303 | 81 | 142 | 6.0 | 12.0 | 0.00 | 0.00 | 0.00 | 70 | 1012.0 |
| 20260904031204 | 81 | 142 | 6.0 | 12.0 | 0.00 | 0.00 | 0.00 | 70 | 1012.0 |
| 20260904031104 | 81 | 143 | 6.0 | 12.0 | 0.00 | 0.00 | 0.00 | 70 | 1012.0 |
| 20260904030905 | 82 | 146 | 7.0 | 14.0 | 0.00 | 0.00 | 0.00 | 69 | 1011.9 |
| 20260904030804 | 82 | 144 | 7.0 | 14.0 | 0.00 | 0.00 | 0.00 | 69 | 1011.9 |
| 20260904030703 | 82 | 144 | 7.0 | 14.0 | 0.00 | 0.00 | 0.00 | 69 | 1011.8 |
| 20260904030606 | 82 | 143 | 7.0 | 14.0 | 0.00 | 0.00 | 0.00 | 69 | 1011.8 |
| 20260904030405 | 82 | 143 | 7.0 | 14.0 | 0.00 | 0.00 | 0.00 | 69 | 1011.8 |
| 20260904030306 | 82 | 144 | 7.0 | 14.0 | 0.00 | 0.00 | 0.00 | 69 | 1011.7 |
| 20260904030106 | 82 | 145 | 6.0 | 14.0 | 0.00 | 0.00 | 0.00 | 69 | 1011.7 |
| 20260904030005 | 82 | 143 | 6.0 | 14.0 | 0.00 | 0.00 | 0.00 | 69 | 1011.7 |
| 20260904025906 | 82 | 139 | 6.0 | 14.0 | 0.00 | 0.00 | 0.00 | 69 | 1011.7 |
| 20260904025805 | 82 | 139 | 6.0 | 14.0 | 0.00 | 0.00 | 0.00 | 69 | 1011.7 |
| 20260904025706 | 82 | 138 | 6.0 | 14.0 | 0.00 | 0.00 | 0.00 | 69 | 1011.6 |
| 20260904025605 | 82 | 139 | 6.0 | 14.0 | 0.00 | 0.00 | 0.00 | 69 | 1011.7 |
| 20260904025406 | 82 | 139 | 6.0 | 12.0 | 0.00 | 0.00 | 0.00 | 68 | 1011.7 |
| 20260904025105 | 82 | 136 | 7.0 | 13.0 | 0.00 | 0.00 | 0.00 | 68 | 1011.6 |
| 20260904025006 | 82 | 136 | 7.0 | 13.0 | 0.00 | 0.00 | 0.00 | 68 | 1011.7 |
| 20260904024905 | 82 | 138 | 7.0 | 13.0 | 0.00 | 0.00 | 0.00 | 68 | 1011.6 |
| 20260904024606 | 82 | 139 | 7.0 | 13.0 | 0.00 | 0.00 | 0.00 | 68 | 1011.6 |
| 20260904024406 | 82 | 139 | 7.0 | 13.0 | 0.00 | 0.00 | 0.00 | 68 | 1011.5 |
| 20260904024305 | 82 | 139 | 7.0 | 13.0 | 0.00 | 0.00 | 0.00 | 68 | 1011.5 |
| 20260904024206 | 82 | 138 | 7.0 | 15.0 | 0.00 | 0.00 | 0.00 | 68 | 1011.5 |
| 20260904024106 | 82 | 139 | 7.0 | 15.0 | 0.00 | 0.00 | 0.00 | 67 | 1011.4 |
| 20260904024006 | 82 | 140 | 7.0 | 15.0 | 0.00 | 0.00 | 0.00 | 67 | 1011.4 |
| 20260904023906 | 82 | 141 | 6.0 | 15.0 | 0.00 | 0.00 | 0.00 | 67 | 1011.4 |
| 20260904023706 | 82 | 141 | 6.0 | 15.0 | 0.00 | 0.00 | 0.00 | 67 | 1011.4 |
| 20260904023606 | 82 | 140 | 6.0 | 15.0 | 0.00 | 0.00 | 0.00 | 67 | 1011.4 |
| 20260904023505 | 82 | 141 | 6.0 | 15.0 | 0.00 | 0.00 | 0.00 | 67 | 1011.4 |
| 20260904023406 | 82 | 140 | 6.0 | 15.0 | 0.00 | 0.00 | 0.00 | 67 | 1011.4 |
| 20260904023206 | 82 | 142 | 6.0 | 12.0 | 0.00 | 0.00 | 0.00 | 67 | 1011.4 |
| 20260904023106 | 82 | 142 | 6.0 | 12.0 | 0.00 | 0.00 | 0.00 | 67 | 1011.4 |
| 20260904023006 | 82 | 142 | 6.0 | 12.0 | 0.00 | 0.00 | 0.00 | 67 | 1011.3 |
| 20260904022905 | 82 | 141 | 6.0 | 12.0 | 0.00 | 0.00 | 0.00 | 67 | 1011.4 |
| 20260904022806 | 82 | 141 | 6.0 | 12.0 | 0.00 | 0.00 | 0.00 | 67 | 1011.4 |
| 20260904022706 | 82 | 141 | 6.0 | 12.0 | 0.00 | 0.00 | 0.00 | 67 | 1011.4 |
| 20260904022605 | 82 | 141 | 6.0 | 12.0 | 0.00 | 0.00 | 0.00 | 67 | 1011.4 |
| 20260904022506 | 82 | 140 | 6.0 | 12.0 | 0.00 | 0.00 | 0.00 | 67 | 1011.3 |
| 20260904022406 | 82 | 140 | 6.0 | 13.0 | 0.00 | 0.00 | 0.00 | 67 | 1011.3 |
| 20260904022206 | 83 | 140 | 6.0 | 13.0 | 0.00 | 0.00 | 0.00 | 67 | 1011.3 |
| 20260904022105 | 83 | 141 | 6.0 | 14.0 | 0.00 | 0.00 | 0.00 | 67 | 1011.3 |
| 20260904022006 | 83 | 142 | 7.0 | 14.0 | 0.00 | 0.00 | 0.00 | 67 | 1011.3 |
| 20260904021905 | 83 | 141 | 7.0 | 14.0 | 0.00 | 0.00 | 0.00 | 67 | 1011.3 |
| 20260904021805 | 83 | 141 | 7.0 | 14.0 | 0.00 | 0.00 | 0.00 | 67 | 1011.3 |
| 20260904021706 | 83 | 142 | 7.0 | 14.0 | 0.00 | 0.00 | 0.00 | 67 | 1011.3 |
| 20260904021605 | 83 | 143 | 7.0 | 14.0 | 0.00 | 0.00 | 0.00 | 67 | 1011.2 |
| 20260904021506 | 83 | 144 | 7.0 | 14.0 | 0.00 | 0.00 | 0.00 | 67 | 1011.2 |
| 20260904021405 | 83 | 145 | 7.0 | 14.0 | 0.00 | 0.00 | 0.00 | 67 | 1011.3 |
| 20260904021306 | 83 | 145 | 7.0 | 14.0 | 0.00 | 0.00 | 0.00 | 67 | 1011.3 |
| 20260904021206 | 83 | 147 | 7.0 | 14.0 | 0.00 | 0.00 | 0.00 | 67 | 1011.3 |
| 20260904021105 | 83 | 146 | 7.0 | 15.0 | 0.00 | 0.00 | 0.00 | 67 | 1011.3 |
| 20260904021006 | 83 | 146 | 8.0 | 15.0 | 0.00 | 0.00 | 0.00 | 67 | 1011.2 |
| 20260904020905 | 83 | 148 | 8.0 | 16.0 | 0.00 | 0.00 | 0.00 | 67 | 1011.2 |
| 20260904020806 | 83 | 147 | 8.0 | 16.0 | 0.00 | 0.00 | 0.00 | 67 | 1011.2 |
| 20260904020705 | 83 | 148 | 8.0 | 16.0 | 0.00 | 0.00 | 0.00 | 67 | 1011.2 |
| 20260904020606 | 83 | 146 | 8.0 | 16.0 | 0.00 | 0.00 | 0.00 | 67 | 1011.1 |
| 20260904020505 | 83 | 145 | 8.0 | 16.0 | 0.00 | 0.00 | 0.00 | 67 | 1011.1 |
| 20260904020406 | 83 | 143 | 8.0 | 16.0 | 0.00 | 0.00 | 0.00 | 67 | 1011.1 |
| 20260904020305 | 83 | 142 | 8.0 | 16.0 | 0.00 | 0.00 | 0.00 | 67 | 1011.1 |
| 20260904020206 | 83 | 140 | 8.0 | 16.0 | 0.00 | 0.00 | 0.00 | 67 | 1011.1 |
| 20260904020106 | 83 | 139 | 8.0 | 16.0 | 0.00 | 0.00 | 0.00 | 67 | 1011.0 |
| 20260904020006 | 83 | 139 | 7.0 | 16.0 | 0.00 | 0.00 | 0.00 | 67 | 1011.0 |
| 20260904015905 | 83 | 138 | 7.0 | 16.0 | 0.00 | 0.00 | 0.00 | 68 | 1011.0 |
| 20260904015806 | 83 | 137 | 7.0 | 14.0 | 0.00 | 0.00 | 0.00 | 68 | 1010.9 |
| 20260904015706 | 83 | 136 | 7.0 | 14.0 | 0.00 | 0.00 | 0.00 | 68 | 1010.9 |
| 20260904015605 | 83 | 137 | 7.0 | 14.0 | 0.00 | 0.00 | 0.00 | 68 | 1010.9 |
| 20260904015506 | 83 | 139 | 7.0 | 14.0 | 0.00 | 0.00 | 0.00 | 68 | 1010.9 |
| 20260904015406 | 83 | 141 | 7.0 | 14.0 | 0.00 | 0.00 | 0.00 | 68 | 1010.9 |
| 20260904015205 | 83 | 140 | 8.0 | 14.0 | 0.00 | 0.00 | 0.00 | 68 | 1010.9 |
| 20260904015106 | 83 | 141 | 8.0 | 14.0 | 0.00 | 0.00 | 0.00 | 68 | 1011.0 |
| 20260904015006 | 83 | 140 | 7.0 | 14.0 | 0.00 | 0.00 | 0.00 | 68 | 1011.0 |
| 20260904014905 | 83 | 139 | 7.0 | 14.0 | 0.00 | 0.00 | 0.00 | 68 | 1010.9 |
| 20260904014807 | 83 | 139 | 8.0 | 14.0 | 0.00 | 0.00 | 0.00 | 68 | 1011.0 |
| 20260904014606 | 84 | 138 | 7.0 | 14.0 | 0.00 | 0.00 | 0.00 | 68 | 1010.9 |
| 20260904014506 | 84 | 136 | 7.0 | 13.0 | 0.00 | 0.00 | 0.00 | 68 | 1011.0 |
| 20260904014307 | 84 | 134 | 7.0 | 14.0 | 0.00 | 0.00 | 0.00 | 68 | 1011.0 |
| 20260904014205 | 84 | 134 | 7.0 | 14.0 | 0.00 | 0.00 | 0.00 | 68 | 1011.0 |
| 20260904014106 | 84 | 131 | 7.0 | 14.0 | 0.00 | 0.00 | 0.00 | 68 | 1011.0 |
| 20260904013805 | 84 | 128 | 7.0 | 14.0 | 0.00 | 0.00 | 0.00 | 68 | 1010.9 |
| 20260904013705 | 84 | 128 | 7.0 | 14.0 | 0.00 | 0.00 | 0.00 | 68 | 1010.9 |
| 20260904013505 | 84 | 127 | 7.0 | 17.0 | 0.00 | 0.00 | 0.00 | 68 | 1010.9 |
| 20260904013406 | 84 | 128 | 8.0 | 17.0 | 0.00 | 0.00 | 0.00 | 68 | 1010.9 |
| 20260904013305 | 84 | 129 | 8.0 | 17.0 | 0.00 | 0.00 | 0.00 | 68 | 1010.9 |
| 20260904013206 | 84 | 129 | 8.0 | 17.0 | 0.00 | 0.00 | 0.00 | 68 | 1010.9 |
| 20260904013105 | 84 | 129 | 9.0 | 17.0 | 0.00 | 0.00 | 0.00 | 68 | 1010.9 |
| 20260904013006 | 84 | 129 | 9.0 | 17.0 | 0.00 | 0.00 | 0.00 | 68 | 1010.8 |
| 20260904012905 | 84 | 129 | 9.0 | 17.0 | 0.00 | 0.00 | 0.00 | 68 | 1010.8 |
| 20260904012806 | 84 | 128 | 9.0 | 17.0 | 0.00 | 0.00 | 0.00 | 67 | 1010.8 |
| 20260904012606 | 84 | 129 | 9.0 | 17.0 | 0.00 | 0.00 | 0.00 | 67 | 1010.8 |
| 20260904012505 | 84 | 129 | 9.0 | 19.0 | 0.00 | 0.00 | 0.00 | 67 | 1010.7 |
| 20260904012306 | 84 | 125 | 9.0 | 19.0 | 0.00 | 0.00 | 0.00 | 67 | 1010.7 |
| 20260904012206 | 84 | 124 | 9.0 | 19.0 | 0.00 | 0.00 | 0.00 | 67 | 1010.7 |
| 20260904012106 | 84 | 125 | 9.0 | 19.0 | 0.00 | 0.00 | 0.00 | 67 | 1010.7 |
| 20260904012005 | 84 | 125 | 10.0 | 19.0 | 0.00 | 0.00 | 0.00 | 67 | 1010.6 |
| 20260904011906 | 84 | 125 | 10.0 | 19.0 | 0.00 | 0.00 | 0.00 | 67 | 1010.7 |
| 20260904011805 | 84 | 126 | 10.0 | 19.0 | 0.00 | 0.00 | 0.00 | 67 | 1010.7 |
| 20260904011706 | 84 | 127 | 10.0 | 19.0 | 0.00 | 0.00 | 0.00 | 67 | 1010.6 |
| 20260904011605 | 84 | 126 | 10.0 | 19.0 | 0.00 | 0.00 | 0.00 | 67 | 1010.6 |
| 20260904011506 | 85 | 127 | 10.0 | 17.0 | 0.00 | 0.00 | 0.00 | 67 | 1010.6 |
| 20260904011405 | 85 | 128 | 10.0 | 17.0 | 0.00 | 0.00 | 0.00 | 67 | 1010.6 |
| 20260904011306 | 85 | 128 | 10.0 | 17.0 | 0.00 | 0.00 | 0.00 | 66 | 1010.6 |
| 20260904011205 | 85 | 129 | 9.0 | 17.0 | 0.00 | 0.00 | 0.00 | 66 | 1010.6 |
| 20260904011105 | 85 | 130 | 9.0 | 17.0 | 0.00 | 0.00 | 0.00 | 66 | 1010.6 |
| 20260904011006 | 85 | 131 | 9.0 | 17.0 | 0.00 | 0.00 | 0.00 | 66 | 1010.6 |
| 20260904010905 | 85 | 132 | 9.0 | 17.0 | 0.00 | 0.00 | 0.00 | 66 | 1010.5 |
| 20260904010805 | 85 | 131 | 9.0 | 16.0 | 0.00 | 0.00 | 0.00 | 66 | 1010.6 |
| 20260904010705 | 85 | 129 | 10.0 | 18.0 | 0.00 | 0.00 | 0.00 | 66 | 1010.5 |
| 20260904010606 | 85 | 129 | 10.0 | 18.0 | 0.00 | 0.00 | 0.00 | 66 | 1010.5 |
| 20260904010506 | 85 | 127 | 10.0 | 19.0 | 0.00 | 0.00 | 0.00 | 66 | 1010.5 |
| 20260904010406 | 85 | 125 | 10.0 | 19.0 | 0.00 | 0.00 | 0.00 | 66 | 1010.6 |
| 20260904010305 | 85 | 125 | 10.0 | 19.0 | 0.00 | 0.00 | 0.00 | 66 | 1010.6 |
| 20260904010105 | 85 | 124 | 11.0 | 19.0 | 0.00 | 0.00 | 0.00 | 66 | 1010.6 |
| 20260904010006 | 85 | 123 | 11.0 | 19.0 | 0.00 | 0.00 | 0.00 | 66 | 1010.7 |
| 20260904005905 | 85 | 122 | 11.0 | 19.0 | 0.00 | 0.00 | 0.00 | 66 | 1010.7 |
| 20260904005806 | 85 | 122 | 11.0 | 19.0 | 0.00 | 0.00 | 0.00 | 66 | 1010.7 |
| 20260904005605 | 85 | 120 | 10.0 | 19.0 | 0.00 | 0.00 | 0.00 | 66 | 1010.7 |
| 20260904005506 | 85 | 122 | 10.0 | 17.0 | 0.00 | 0.00 | 0.00 | 66 | 1010.7 |
| 20260904005405 | 85 | 123 | 10.0 | 17.0 | 0.00 | 0.00 | 0.00 | 66 | 1010.8 |
| 20260904005306 | 85 | 124 | 10.0 | 17.0 | 0.00 | 0.00 | 0.00 | 66 | 1010.8 |
| 20260904005105 | 86 | 124 | 10.0 | 19.0 | 0.00 | 0.00 | 0.00 | 65 | 1010.8 |
| 20260904005006 | 86 | 124 | 10.0 | 19.0 | 0.00 | 0.00 | 0.00 | 65 | 1010.8 |
| 20260904004906 | 86 | 125 | 10.0 | 20.0 | 0.00 | 0.00 | 0.00 | 65 | 1010.8 |
| 20260904004705 | 86 | 126 | 10.0 | 20.0 | 0.00 | 0.00 | 0.00 | 65 | 1010.8 |
| 20260904004606 | 86 | 126 | 11.0 | 20.0 | 0.00 | 0.00 | 0.00 | 65 | 1010.8 |
| 20260904004406 | 86 | 123 | 11.0 | 20.0 | 0.00 | 0.00 | 0.00 | 64 | 1010.7 |
| 20260904004306 | 86 | 122 | 11.0 | 20.0 | 0.00 | 0.00 | 0.00 | 64 | 1010.7 |
| 20260904004205 | 86 | 121 | 11.0 | 20.0 | 0.00 | 0.00 | 0.00 | 64 | 1010.6 |
| 20260904004105 | 86 | 119 | 11.0 | 20.0 | 0.00 | 0.00 | 0.00 | 64 | 1010.7 |
| 20260904004005 | 86 | 118 | 11.0 | 20.0 | 0.00 | 0.00 | 0.00 | 64 | 1010.6 |
| 20260904003907 | 86 | 116 | 11.0 | 19.0 | 0.00 | 0.00 | 0.00 | 64 | 1010.7 |
| 20260904003805 | 86 | 115 | 11.0 | 19.0 | 0.00 | 0.00 | 0.00 | 64 | 1010.7 |
| 20260904003706 | 86 | 115 | 10.0 | 19.0 | 0.00 | 0.00 | 0.00 | 63 | 1010.6 |
| 20260904003605 | 86 | 115 | 10.0 | 19.0 | 0.00 | 0.00 | 0.00 | 63 | 1010.6 |
| 20260904003506 | 86 | 116 | 10.0 | 19.0 | 0.00 | 0.00 | 0.00 | 63 | 1010.6 |
| 20260904003405 | 86 | 117 | 9.0 | 19.0 | 0.00 | 0.00 | 0.00 | 63 | 1010.6 |
| 20260904003306 | 86 | 118 | 9.0 | 19.0 | 0.00 | 0.00 | 0.00 | 63 | 1010.6 |
| 20260904003205 | 86 | 120 | 8.0 | 19.0 | 0.00 | 0.00 | 0.00 | 62 | 1010.6 |
| 20260904003106 | 87 | 122 | 8.0 | 19.0 | 0.00 | 0.00 | 0.00 | 62 | 1010.5 |
| 20260904003005 | 87 | 125 | 8.0 | 16.0 | 0.00 | 0.00 | 0.00 | 62 | 1010.5 |
| 20260904002805 | 87 | 127 | 9.0 | 17.0 | 0.00 | 0.00 | 0.00 | 62 | 1010.6 |
| 20260904002605 | 87 | 126 | 9.0 | 17.0 | 0.00 | 0.00 | 0.00 | 62 | 1010.5 |
| 20260904002505 | 87 | 124 | 9.0 | 17.0 | 0.00 | 0.00 | 0.00 | 62 | 1010.5 |
| 20260904002405 | 87 | 124 | 10.0 | 17.0 | 0.00 | 0.00 | 0.00 | 62 | 1010.4 |
| 20260904002306 | 87 | 122 | 10.0 | 17.0 | 0.00 | 0.00 | 0.00 | 62 | 1010.5 |
| 20260904002206 | 87 | 121 | 10.0 | 17.0 | 0.00 | 0.00 | 0.00 | 62 | 1010.4 |
| 20260904002105 | 87 | 120 | 10.0 | 17.0 | 0.00 | 0.00 | 0.00 | 62 | 1010.4 |
| 20260904002006 | 87 | 120 | 9.0 | 17.0 | 0.00 | 0.00 | 0.00 | 62 | 1010.4 |
| 20260904001905 | 87 | 119 | 9.0 | 17.0 | 0.00 | 0.00 | 0.00 | 62 | 1010.4 |
| 20260904001805 | 87 | 121 | 9.0 | 17.0 | 0.00 | 0.00 | 0.00 | 62 | 1010.5 |
| 20260904001705 | 87 | 121 | 9.0 | 17.0 | 0.00 | 0.00 | 0.00 | 62 | 1010.4 |
| 20260904001605 | 87 | 120 | 9.0 | 17.0 | 0.00 | 0.00 | 0.00 | 62 | 1010.5 |
| 20260904001506 | 87 | 121 | 9.0 | 17.0 | 0.00 | 0.00 | 0.00 | 62 | 1010.5 |
| 20260904001405 | 87 | 121 | 10.0 | 17.0 | 0.00 | 0.00 | 0.00 | 62 | 1010.5 |
| 20260904001305 | 87 | 122 | 10.0 | 17.0 | 0.00 | 0.00 | 0.00 | 62 | 1010.6 |
| 20260904001206 | 87 | 123 | 10.0 | 17.0 | 0.00 | 0.00 | 0.00 | 62 | 1010.5 |
| 20260904001105 | 87 | 122 | 10.0 | 17.0 | 0.00 | 0.00 | 0.00 | 62 | 1010.5 |
| 20260904001006 | 87 | 121 | 10.0 | 17.0 | 0.00 | 0.00 | 0.00 | 62 | 1010.5 |
| 20260904000906 | 87 | 121 | 11.0 | 17.0 | 0.00 | 0.00 | 0.00 | 62 | 1010.5 |
| 20260904000706 | 87 | 122 | 11.0 | 19.0 | 0.00 | 0.00 | 0.00 | 62 | 1010.5 |
| 20260904000605 | 87 | 122 | 10.0 | 21.0 | 0.00 | 0.00 | 0.00 | 62 | 1010.5 |
| 20260904000506 | 87 | 122 | 11.0 | 21.0 | 0.00 | 0.00 | 0.00 | 62 | 1010.4 |
| 20260904000405 | 87 | 121 | 10.0 | 21.0 | 0.00 | 0.00 | 0.00 | 62 | 1010.5 |
| 20260904000305 | 87 | 123 | 10.0 | 21.0 | 0.00 | 0.00 | 0.00 | 62 | 1010.4 |
| 20260904000205 | 87 | 123 | 11.0 | 21.0 | 0.00 | 0.00 | 0.00 | 63 | 1010.5 |
| 20260904000105 | 87 | 126 | 11.0 | 21.0 | 0.00 | 0.00 | 0.00 | 63 | 1010.5 |
| 20260904000006 | 87 | 127 | 12.0 | 23.0 | 0.00 | 0.00 | 0.00 | 63 | 1010.5 |
| 20260903235806 | 88 | 124 | 12.0 | 23.0 | 0.00 | 0.00 | 0.00 | 63 | 1010.5 |
| 20260903235706 | 88 | 125 | 12.0 | 23.0 | 0.00 | 0.00 | 0.00 | 64 | 1010.6 |
| 20260903235506 | 88 | 127 | 12.0 | 23.0 | 0.00 | 0.00 | 0.00 | 64 | 1010.6 |
| 20260903235306 | 88 | 127 | 13.0 | 23.0 | 0.00 | 0.00 | 0.00 | 64 | 1010.6 |
| 20260903235205 | 88 | 128 | 12.0 | 23.0 | 0.00 | 0.00 | 0.00 | 64 | 1010.5 |
| 20260903235106 | 88 | 126 | 12.0 | 23.0 | 0.00 | 0.00 | 0.00 | 65 | 1010.6 |
| 20260903234905 | 88 | 124 | 11.0 | 21.0 | 0.00 | 0.00 | 0.00 | 65 | 1010.5 |
| 20260903234805 | 88 | 123 | 11.0 | 21.0 | 0.00 | 0.00 | 0.00 | 65 | 1010.4 |
| 20260903234705 | 88 | 120 | 12.0 | 21.0 | 0.00 | 0.00 | 0.00 | 66 | 1010.5 |
| 20260903234406 | 88 | 115 | 12.0 | 19.0 | 0.00 | 0.00 | 0.00 | 66 | 1010.5 |
| 20260903234305 | 89 | 113 | 11.0 | 19.0 | 0.00 | 0.00 | 0.00 | 66 | 1010.5 |
| 20260903234206 | 89 | 111 | 12.0 | 19.0 | 0.00 | 0.00 | 0.00 | 66 | 1010.4 |
| 20260903234006 | 89 | 110 | 13.0 | 22.0 | 0.00 | 0.00 | 0.00 | 66 | 1010.4 |
| 20260903233905 | 89 | 110 | 13.0 | 22.0 | 0.00 | 0.00 | 0.00 | 65 | 1010.4 |
| 20260903233706 | 89 | 113 | 12.0 | 22.0 | 0.00 | 0.00 | 0.00 | 65 | 1010.4 |
| 20260903233605 | 89 | 114 | 12.0 | 22.0 | 0.00 | 0.00 | 0.00 | 64 | 1010.3 |
| 20260903233505 | 90 | 114 | 12.0 | 22.0 | 0.00 | 0.00 | 0.00 | 64 | 1010.4 |
| 20260903233405 | 90 | 115 | 13.0 | 22.0 | 0.00 | 0.00 | 0.00 | 64 | 1010.4 |
| 20260903233206 | 90 | 116 | 12.0 | 22.0 | 0.00 | 0.00 | 0.00 | 63 | 1010.3 |
| 20260903233105 | 90 | 116 | 12.0 | 20.0 | 0.00 | 0.00 | 0.00 | 63 | 1010.3 |
| 20260903233005 | 90 | 118 | 12.0 | 20.0 | 0.00 | 0.00 | 0.00 | 63 | 1010.3 |
| 20260903232905 | 90 | 120 | 12.0 | 24.0 | 0.00 | 0.00 | 0.00 | 63 | 1010.3 |
| 20260903232805 | 90 | 117 | 12.0 | 24.0 | 0.00 | 0.00 | 0.00 | 63 | 1010.3 |
| 20260903232705 | 90 | 117 | 12.0 | 24.0 | 0.00 | 0.00 | 0.00 | 62 | 1010.3 |
| 20260903232606 | 90 | 118 | 12.0 | 24.0 | 0.00 | 0.00 | 0.00 | 62 | 1010.3 |
| 20260903232506 | 90 | 120 | 12.0 | 24.0 | 0.00 | 0.00 | 0.00 | 62 | 1010.3 |
| 20260903232405 | 90 | 121 | 12.0 | 24.0 | 0.00 | 0.00 | 0.00 | 61 | 1010.3 |
| 20260903232306 | 91 | 125 | 11.0 | 24.0 | 0.00 | 0.00 | 0.00 | 60 | 1010.2 |
| 20260903232105 | 91 | 128 | 11.0 | 24.0 | 0.00 | 0.00 | 0.00 | 60 | 1010.3 |
| 20260903232005 | 91 | 129 | 11.0 | 24.0 | 0.00 | 0.00 | 0.00 | 60 | 1010.2 |
| 20260903231906 | 91 | 129 | 11.0 | 19.0 | 0.00 | 0.00 | 0.00 | 60 | 1010.2 |
| 20260903231805 | 91 | 131 | 11.0 | 19.0 | 0.00 | 0.00 | 0.00 | 60 | 1010.1 |
| 20260903231706 | 91 | 132 | 11.0 | 19.0 | 0.00 | 0.00 | 0.00 | 59 | 1010.2 |
| 20260903231605 | 91 | 133 | 11.0 | 19.0 | 0.00 | 0.00 | 0.00 | 59 | 1010.1 |
| 20260903231506 | 91 | 132 | 11.0 | 19.0 | 0.00 | 0.00 | 0.00 | 59 | 1010.2 |
| 20260903231406 | 91 | 130 | 12.0 | 19.0 | 0.00 | 0.00 | 0.00 | 59 | 1010.1 |
| 20260903231306 | 91 | 128 | 12.0 | 20.0 | 0.00 | 0.00 | 0.00 | 59 | 1010.1 |
| 20260903231205 | 91 | 128 | 12.0 | 20.0 | 0.00 | 0.00 | 0.00 | 58 | 1010.1 |
| 20260903231106 | 92 | 128 | 12.0 | 21.0 | 0.00 | 0.00 | 0.00 | 58 | 1010.1 |
| 20260903231005 | 92 | 126 | 12.0 | 23.0 | 0.00 | 0.00 | 0.00 | 58 | 1010.1 |
| 20260903230906 | 92 | 125 | 13.0 | 23.0 | 0.00 | 0.00 | 0.00 | 58 | 1010.0 |
| 20260903230806 | 92 | 124 | 12.0 | 23.0 | 0.00 | 0.00 | 0.00 | 58 | 1010.0 |
| 20260903230705 | 92 | 124 | 12.0 | 23.0 | 0.00 | 0.00 | 0.00 | 57 | 1010.0 |
| 20260903230605 | 92 | 124 | 12.0 | 23.0 | 0.00 | 0.00 | 0.00 | 57 | 1010.0 |
| 20260903230506 | 92 | 125 | 12.0 | 23.0 | 0.00 | 0.00 | 0.00 | 57 | 1010.0 |
| 20260903230405 | 92 | 126 | 12.0 | 23.0 | 0.00 | 0.00 | 0.00 | 58 | 1010.0 |
| 20260903230306 | 92 | 126 | 12.0 | 23.0 | 0.00 | 0.00 | 0.00 | 57 | 1009.9 |
| 20260903230205 | 92 | 125 | 12.0 | 23.0 | 0.00 | 0.00 | 0.00 | 57 | 1009.9 |
| 20260903230106 | 92 | 126 | 12.0 | 23.0 | 0.00 | 0.00 | 0.00 | 57 | 1009.9 |
| 20260903230005 | 92 | 126 | 12.0 | 23.0 | 0.00 | 0.00 | 0.00 | 56 | 1009.9 |
| 20260903225905 | 92 | 127 | 12.0 | 23.0 | 0.00 | 0.00 | 0.00 | 56 | 1009.8 |
| 20260903225805 | 92 | 129 | 12.0 | 23.0 | 0.00 | 0.00 | 0.00 | 56 | 1009.9 |
| 20260903225705 | 92 | 130 | 12.0 | 23.0 | 0.00 | 0.00 | 0.00 | 56 | 1009.8 |
| 20260903225507 | 93 | 129 | 12.0 | 23.0 | 0.00 | 0.00 | 0.00 | 56 | 1009.8 |
| 20260903225405 | 93 | 128 | 12.0 | 23.0 | 0.00 | 0.00 | 0.00 | 56 | 1009.9 |
| 20260903225307 | 93 | 128 | 12.0 | 23.0 | 0.00 | 0.00 | 0.00 | 56 | 1009.9 |
| 20260903225205 | 93 | 128 | 12.0 | 23.0 | 0.00 | 0.00 | 0.00 | 56 | 1009.9 |
| 20260903225106 | 93 | 126 | 12.0 | 23.0 | 0.00 | 0.00 | 0.00 | 56 | 1009.8 |
| 20260903224906 | 93 | 123 | 12.0 | 23.0 | 0.00 | 0.00 | 0.00 | 55 | 1009.8 |
| 20260903224805 | 93 | 122 | 12.0 | 22.0 | 0.00 | 0.00 | 0.00 | 55 | 1009.8 |
| 20260903224706 | 93 | 122 | 12.0 | 22.0 | 0.00 | 0.00 | 0.00 | 55 | 1009.8 |
| 20260903224505 | 93 | 123 | 12.0 | 22.0 | 0.00 | 0.00 | 0.00 | 55 | 1009.8 |
| 20260903224405 | 93 | 124 | 12.0 | 22.0 | 0.00 | 0.00 | 0.00 | 55 | 1009.8 |
| 20260903224305 | 93 | 125 | 12.0 | 22.0 | 0.00 | 0.00 | 0.00 | 55 | 1009.8 |
| 20260903224206 | 93 | 125 | 11.0 | 22.0 | 0.00 | 0.00 | 0.00 | 55 | 1009.8 |
| 20260903224106 | 94 | 125 | 11.0 | 21.0 | 0.00 | 0.00 | 0.00 | 55 | 1009.8 |
| 20260903224007 | 94 | 125 | 11.0 | 21.0 | 0.00 | 0.00 | 0.00 | 55 | 1009.8 |
| 20260903223905 | 94 | 124 | 11.0 | 21.0 | 0.00 | 0.00 | 0.00 | 55 | 1009.8 |
| 20260903223806 | 94 | 121 | 11.0 | 21.0 | 0.00 | 0.00 | 0.00 | 55 | 1009.8 |
| 20260903223706 | 94 | 118 | 11.0 | 20.0 | 0.00 | 0.00 | 0.00 | 55 | 1009.8 |
| 20260903223605 | 94 | 115 | 12.0 | 20.0 | 0.00 | 0.00 | 0.00 | 55 | 1009.7 |
| 20260903223506 | 94 | 115 | 12.0 | 20.0 | 0.00 | 0.00 | 0.00 | 55 | 1009.7 |
| 20260903223405 | 94 | 114 | 11.0 | 20.0 | 0.00 | 0.00 | 0.00 | 55 | 1009.8 |
| 20260903223305 | 94 | 113 | 11.0 | 20.0 | 0.00 | 0.00 | 0.00 | 55 | 1009.7 |
| 20260903223105 | 94 | 114 | 12.0 | 20.0 | 0.00 | 0.00 | 0.00 | 56 | 1009.7 |
| 20260903222906 | 94 | 116 | 11.0 | 20.0 | 0.00 | 0.00 | 0.00 | 55 | 1009.7 |
| 20260903222805 | 94 | 117 | 11.0 | 20.0 | 0.00 | 0.00 | 0.00 | 55 | 1009.7 |
| 20260903222706 | 94 | 119 | 11.0 | 19.0 | 0.00 | 0.00 | 0.00 | 56 | 1009.8 |
| 20260903222605 | 94 | 119 | 11.0 | 19.0 | 0.00 | 0.00 | 0.00 | 55 | 1009.7 |
| 20260903222506 | 94 | 118 | 10.0 | 19.0 | 0.00 | 0.00 | 0.00 | 55 | 1009.8 |
| 20260903222306 | 94 | 121 | 11.0 | 19.0 | 0.00 | 0.00 | 0.00 | 55 | 1009.7 |
| 20260903222205 | 94 | 121 | 11.0 | 19.0 | 0.00 | 0.00 | 0.00 | 55 | 1009.7 |
| 20260903222106 | 94 | 123 | 10.0 | 19.0 | 0.00 | 0.00 | 0.00 | 56 | 1009.7 |
| 20260903221805 | 94 | 129 | 11.0 | 18.0 | 0.00 | 0.00 | 0.00 | 56 | 1009.7 |
| 20260903221706 | 94 | 128 | 10.0 | 18.0 | 0.00 | 0.00 | 0.00 | 56 | 1009.7 |
| 20260903221605 | 94 | 129 | 11.0 | 18.0 | 0.00 | 0.00 | 0.00 | 56 | 1009.7 |
| 20260903221405 | 94 | 125 | 12.0 | 21.0 | 0.00 | 0.00 | 0.00 | 55 | 1009.6 |
| 20260903221305 | 94 | 120 | 12.0 | 21.0 | 0.00 | 0.00 | 0.00 | 55 | 1009.7 |
| 20260903221205 | 94 | 118 | 11.0 | 21.0 | 0.00 | 0.00 | 0.00 | 55 | 1009.6 |
| 20260903221005 | 94 | 116 | 12.0 | 21.0 | 0.00 | 0.00 | 0.00 | 56 | 1009.7 |
| 20260903220906 | 94 | 116 | 12.0 | 21.0 | 0.00 | 0.00 | 0.00 | 56 | 1009.6 |
| 20260903220705 | 94 | 116 | 13.0 | 22.0 | 0.00 | 0.00 | 0.00 | 57 | 1009.7 |
| 20260903220505 | 94 | 116 | 13.0 | 22.0 | 0.00 | 0.00 | 0.00 | 56 | 1009.7 |
| 20260903220405 | 94 | 116 | 12.0 | 22.0 | 0.00 | 0.00 | 0.00 | 56 | 1009.6 |
| 20260903220305 | 94 | 119 | 12.0 | 22.0 | 0.00 | 0.00 | 0.00 | 56 | 1009.7 |
| 20260903220205 | 94 | 119 | 12.0 | 22.0 | 0.00 | 0.00 | 0.00 | 56 | 1009.7 |
| 20260903220105 | 94 | 120 | 12.0 | 22.0 | 0.00 | 0.00 | 0.00 | 56 | 1009.7 |
| 20260903215905 | 94 | 118 | 12.0 | 22.0 | 0.00 | 0.00 | 0.00 | 56 | 1009.6 |
| 20260903215605 | 94 | 117 | 11.0 | 20.0 | 0.00 | 0.00 | 0.00 | 56 | 1009.5 |
| 20260903215506 | 94 | 120 | 11.0 | 20.0 | 0.00 | 0.00 | 0.00 | 56 | 1009.6 |
| 20260903215405 | 94 | 121 | 12.0 | 20.0 | 0.00 | 0.00 | 0.00 | 55 | 1009.7 |
| 20260903215306 | 94 | 121 | 12.0 | 20.0 | 0.00 | 0.00 | 0.00 | 56 | 1009.5 |
| 20260903215205 | 94 | 120 | 12.0 | 20.0 | 0.00 | 0.00 | 0.00 | 56 | 1009.6 |
| 20260903215106 | 94 | 119 | 12.0 | 20.0 | 0.00 | 0.00 | 0.00 | 56 | 1009.5 |
| 20260903215005 | 95 | 118 | 12.0 | 20.0 | 0.00 | 0.00 | 0.00 | 56 | 1009.6 |
| 20260903214906 | 94 | 119 | 12.0 | 20.0 | 0.00 | 0.00 | 0.00 | 56 | 1009.6 |
| 20260903214805 | 94 | 120 | 12.0 | 20.0 | 0.00 | 0.00 | 0.00 | 56 | 1009.6 |
| 20260903214705 | 95 | 119 | 13.0 | 20.0 | 0.00 | 0.00 | 0.00 | 56 | 1009.6 |
| 20260903214606 | 95 | 117 | 13.0 | 20.0 | 0.00 | 0.00 | 0.00 | 56 | 1009.6 |
| 20260903214506 | 95 | 116 | 12.0 | 20.0 | 0.00 | 0.00 | 0.00 | 56 | 1009.6 |
| 20260903214405 | 95 | 114 | 12.0 | 20.0 | 0.00 | 0.00 | 0.00 | 55 | 1009.5 |
| 20260903214306 | 95 | 114 | 12.0 | 20.0 | 0.00 | 0.00 | 0.00 | 55 | 1009.5 |
| 20260903214205 | 95 | 112 | 11.0 | 19.0 | 0.00 | 0.00 | 0.00 | 55 | 1009.5 |
| 20260903214106 | 95 | 111 | 11.0 | 19.0 | 0.00 | 0.00 | 0.00 | 55 | 1009.5 |
| 20260903214005 | 95 | 110 | 11.0 | 19.0 | 0.00 | 0.00 | 0.00 | 55 | 1009.5 |
| 20260903213905 | 95 | 108 | 11.0 | 19.0 | 0.00 | 0.00 | 0.00 | 54 | 1009.5 |
| 20260903213805 | 95 | 106 | 11.0 | 20.0 | 0.00 | 0.00 | 0.00 | 55 | 1009.6 |
| 20260903213706 | 95 | 105 | 11.0 | 20.0 | 0.00 | 0.00 | 0.00 | 55 | 1009.6 |
| 20260903213605 | 95 | 105 | 10.0 | 20.0 | 0.00 | 0.00 | 0.00 | 55 | 1009.6 |
| 20260903213506 | 95 | 106 | 10.0 | 20.0 | 0.00 | 0.00 | 0.00 | 55 | 1009.6 |
| 20260903213405 | 95 | 107 | 10.0 | 20.0 | 0.00 | 0.00 | 0.00 | 55 | 1009.7 |
| 20260903213305 | 95 | 108 | 10.0 | 20.0 | 0.00 | 0.00 | 0.00 | 56 | 1009.6 |
| 20260903213205 | 95 | 111 | 11.0 | 20.0 | 0.00 | 0.00 | 0.00 | 56 | 1009.7 |
| 20260903213105 | 95 | 111 | 11.0 | 20.0 | 0.00 | 0.00 | 0.00 | 56 | 1009.7 |
| 20260903213006 | 95 | 111 | 11.0 | 20.0 | 0.00 | 0.00 | 0.00 | 56 | 1009.7 |
| 20260903212906 | 95 | 111 | 11.0 | 20.0 | 0.00 | 0.00 | 0.00 | 56 | 1009.6 |
| 20260903212805 | 95 | 112 | 12.0 | 21.0 | 0.00 | 0.00 | 0.00 | 56 | 1009.8 |
| 20260903212706 | 95 | 112 | 11.0 | 21.0 | 0.00 | 0.00 | 0.00 | 55 | 1009.6 |
| 20260903212605 | 95 | 111 | 11.0 | 21.0 | 0.00 | 0.00 | 0.00 | 57 | 1009.8 |
| 20260903212505 | 95 | 111 | 11.0 | 21.0 | 0.00 | 0.00 | 0.00 | 57 | 1009.8 |
| 20260903212307 | 94 | 111 | 11.0 | 21.0 | 0.00 | 0.00 | 0.00 | 56 | 1009.7 |
| 20260903212205 | 94 | 109 | 10.0 | 21.0 | 0.00 | 0.00 | 0.00 | 57 | 1009.8 |
| 20260903212105 | 94 | 109 | 10.0 | 21.0 | 0.00 | 0.00 | 0.00 | 57 | 1009.8 |
| 20260903212005 | 95 | 113 | 10.0 | 21.0 | 0.00 | 0.00 | 0.00 | 57 | 1009.9 |
| 20260903211805 | 95 | 116 | 9.0 | 19.0 | 0.00 | 0.00 | 0.00 | 56 | 1009.9 |
| 20260903211705 | 95 | 119 | 9.0 | 17.0 | 0.00 | 0.00 | 0.00 | 56 | 1009.9 |
| 20260903211605 | 95 | 118 | 9.0 | 18.0 | 0.00 | 0.00 | 0.00 | 56 | 1009.9 |
| 20260903211506 | 95 | 118 | 9.0 | 18.0 | 0.00 | 0.00 | 0.00 | 55 | 1009.9 |
| 20260903211405 | 95 | 120 | 9.0 | 18.0 | 0.00 | 0.00 | 0.00 | 55 | 1010.0 |
| 20260903211205 | 95 | 120 | 9.0 | 18.0 | 0.00 | 0.00 | 0.00 | 56 | 1010.0 |
| 20260903211105 | 95 | 121 | 9.0 | 18.0 | 0.00 | 0.00 | 0.00 | 56 | 1010.0 |
| 20260903211006 | 95 | 120 | 9.0 | 18.0 | 0.00 | 0.00 | 0.00 | 56 | 1010.0 |
| 20260903210905 | 95 | 119 | 9.0 | 18.0 | 0.00 | 0.00 | 0.00 | 56 | 1010.0 |
| 20260903210805 | 95 | 122 | 9.0 | 18.0 | 0.00 | 0.00 | 0.00 | 56 | 1010.0 |
| 20260903210705 | 95 | 120 | 9.0 | 18.0 | 0.00 | 0.00 | 0.00 | 56 | 1010.0 |
| 20260903210605 | 95 | 121 | 9.0 | 16.0 | 0.00 | 0.00 | 0.00 | 56 | 1010.1 |
| 20260903210506 | 95 | 119 | 9.0 | 16.0 | 0.00 | 0.00 | 0.00 | 56 | 1010.1 |
| 20260903210405 | 95 | 116 | 9.0 | 16.0 | 0.00 | 0.00 | 0.00 | 56 | 1010.1 |
| 20260903210306 | 95 | 120 | 9.0 | 16.0 | 0.00 | 0.00 | 0.00 | 56 | 1010.1 |
| 20260903210205 | 95 | 126 | 9.0 | 16.0 | 0.00 | 0.00 | 0.00 | 55 | 1010.1 |
| 20260903210105 | 95 | 129 | 9.0 | 16.0 | 0.00 | 0.00 | 0.00 | 55 | 1010.1 |
| 20260903210005 | 95 | 130 | 9.0 | 16.0 | 0.00 | 0.00 | 0.00 | 56 | 1010.1 |
| 20260903205906 | 95 | 131 | 10.0 | 18.0 | 0.00 | 0.00 | 0.00 | 56 | 1010.1 |
| 20260903205805 | 95 | 131 | 9.0 | 18.0 | 0.00 | 0.00 | 0.00 | 56 | 1010.1 |
| 20260903205705 | 95 | 133 | 9.0 | 18.0 | 0.00 | 0.00 | 0.00 | 57 | 1010.1 |
| 20260903205605 | 95 | 139 | 9.0 | 18.0 | 0.00 | 0.00 | 0.00 | 57 | 1010.2 |
| 20260903205505 | 95 | 143 | 8.0 | 18.0 | 0.00 | 0.00 | 0.00 | 57 | 1010.2 |
| 20260903205404 | 94 | 147 | 8.0 | 18.0 | 0.00 | 0.00 | 0.00 | 57 | 1010.2 |
| 20260903205205 | 95 | 138 | 8.0 | 18.0 | 0.00 | 0.00 | 0.00 | 57 | 1010.3 |
| 20260903205105 | 95 | 133 | 8.0 | 18.0 | 0.00 | 0.00 | 0.00 | 57 | 1010.3 |
| 20260903205005 | 95 | 133 | 8.0 | 18.0 | 0.00 | 0.00 | 0.00 | 56 | 1010.4 |
| 20260903204905 | 95 | 131 | 8.0 | 19.0 | 0.00 | 0.00 | 0.00 | 57 | 1010.4 |
| 20260903204804 | 95 | 131 | 9.0 | 19.0 | 0.00 | 0.00 | 0.00 | 57 | 1010.4 |
| 20260903204705 | 95 | 126 | 9.0 | 19.0 | 0.00 | 0.00 | 0.00 | 58 | 1010.4 |
| 20260903204605 | 95 | 120 | 10.0 | 20.0 | 0.00 | 0.00 | 0.00 | 58 | 1010.4 |
| 20260903204405 | 95 | 116 | 10.0 | 20.0 | 0.00 | 0.00 | 0.00 | 58 | 1010.5 |
| 20260903204106 | 94 | 114 | 10.0 | 20.0 | 0.00 | 0.00 | 0.00 | 58 | 1010.6 |
| 20260903204005 | 94 | 113 | 10.0 | 20.0 | 0.00 | 0.00 | 0.00 | 58 | 1010.6 |
| 20260903203905 | 94 | 111 | 10.0 | 20.0 | 0.00 | 0.00 | 0.00 | 58 | 1010.7 |
| 20260903203705 | 94 | 111 | 9.0 | 20.0 | 0.00 | 0.00 | 0.00 | 58 | 1010.7 |
| 20260903203605 | 95 | 111 | 9.0 | 19.0 | 0.00 | 0.00 | 0.00 | 57 | 1010.7 |
| 20260903203505 | 95 | 113 | 8.0 | 16.0 | 0.00 | 0.00 | 0.00 | 57 | 1010.7 |
| 20260903203406 | 95 | 113 | 9.0 | 16.0 | 0.00 | 0.00 | 0.00 | 57 | 1010.7 |
| 20260903203305 | 95 | 113 | 8.0 | 16.0 | 0.00 | 0.00 | 0.00 | 57 | 1010.8 |
| 20260903203105 | 95 | 113 | 8.0 | 15.0 | 0.00 | 0.00 | 0.00 | 57 | 1010.7 |
| 20260903203005 | 95 | 114 | 9.0 | 17.0 | 0.00 | 0.00 | 0.00 | 57 | 1010.8 |
| 20260903202706 | 95 | 115 | 9.0 | 17.0 | 0.00 | 0.00 | 0.00 | 58 | 1010.8 |
| 20260903202605 | 94 | 115 | 9.0 | 17.0 | 0.00 | 0.00 | 0.00 | 58 | 1010.8 |
| 20260903202506 | 94 | 114 | 9.0 | 17.0 | 0.00 | 0.00 | 0.00 | 58 | 1010.8 |
| 20260903202405 | 94 | 114 | 9.0 | 17.0 | 0.00 | 0.00 | 0.00 | 58 | 1010.8 |
| 20260903202206 | 94 | 114 | 10.0 | 17.0 | 0.00 | 0.00 | 0.00 | 58 | 1010.9 |
| 20260903202105 | 94 | 115 | 10.0 | 17.0 | 0.00 | 0.00 | 0.00 | 57 | 1010.8 |
| 20260903202005 | 94 | 114 | 9.0 | 17.0 | 0.00 | 0.00 | 0.00 | 57 | 1010.9 |
| 20260903201804 | 94 | 115 | 9.0 | 17.0 | 0.00 | 0.00 | 0.00 | 58 | 1010.9 |
| 20260903201605 | 94 | 118 | 9.0 | 17.0 | 0.00 | 0.00 | 0.00 | 58 | 1011.0 |
| 20260903201506 | 94 | 121 | 9.0 | 15.0 | 0.00 | 0.00 | 0.00 | 58 | 1010.9 |
| 20260903201405 | 94 | 120 | 9.0 | 18.0 | 0.00 | 0.00 | 0.00 | 58 | 1011.0 |
| 20260903201305 | 94 | 120 | 9.0 | 18.0 | 0.00 | 0.00 | 0.00 | 57 | 1011.0 |
| 20260903201204 | 94 | 120 | 9.0 | 18.0 | 0.00 | 0.00 | 0.00 | 57 | 1011.0 |
| 20260903201105 | 94 | 119 | 9.0 | 18.0 | 0.00 | 0.00 | 0.00 | 58 | 1011.0 |
| 20260903201005 | 94 | 120 | 9.0 | 18.0 | 0.00 | 0.00 | 0.00 | 56 | 1010.9 |
| 20260903200905 | 94 | 117 | 9.0 | 18.0 | 0.00 | 0.00 | 0.00 | 56 | 1011.1 |
| 20260903200805 | 94 | 115 | 9.0 | 18.0 | 0.00 | 0.00 | 0.00 | 56 | 1011.1 |
| 20260903200705 | 94 | 115 | 9.0 | 18.0 | 0.00 | 0.00 | 0.00 | 57 | 1011.2 |
| 20260903200605 | 94 | 115 | 9.0 | 18.0 | 0.00 | 0.00 | 0.00 | 56 | 1011.1 |
| 20260903200506 | 94 | 111 | 8.0 | 18.0 | 0.00 | 0.00 | 0.00 | 57 | 1011.1 |
| 20260903200405 | 95 | 112 | 8.0 | 17.0 | 0.00 | 0.00 | 0.00 | 57 | 1011.1 |
| 20260903200306 | 95 | 109 | 9.0 | 19.0 | 0.00 | 0.00 | 0.00 | 56 | 1011.1 |
| 20260903200105 | 95 | 112 | 8.0 | 19.0 | 0.00 | 0.00 | 0.00 | 57 | 1011.1 |
| 20260903200005 | 95 | 115 | 8.0 | 19.0 | 0.00 | 0.00 | 0.00 | 58 | 1011.1 |
| 20260903195905 | 95 | 117 | 8.0 | 19.0 | 0.00 | 0.00 | 0.00 | 58 | 1011.1 |
| 20260903195606 | 94 | 111 | 9.0 | 19.0 | 0.00 | 0.00 | 0.00 | 58 | 1011.2 |
| 20260903195505 | 94 | 115 | 9.0 | 19.0 | 0.00 | 0.00 | 0.00 | 57 | 1011.1 |
| 20260903195405 | 94 | 116 | 8.0 | 19.0 | 0.00 | 0.00 | 0.00 | 57 | 1011.2 |
| 20260903195204 | 94 | 120 | 8.0 | 17.0 | 0.00 | 0.00 | 0.00 | 55 | 1011.2 |
| 20260903195005 | 94 | 117 | 8.0 | 17.0 | 0.00 | 0.00 | 0.00 | 56 | 1011.3 |
| 20260903194905 | 94 | 118 | 8.0 | 17.0 | 0.00 | 0.00 | 0.00 | 59 | 1011.2 |
| 20260903194805 | 94 | 119 | 7.0 | 17.0 | 0.00 | 0.00 | 0.00 | 59 | 1011.2 |
| 20260903194705 | 94 | 124 | 7.0 | 14.0 | 0.00 | 0.00 | 0.00 | 57 | 1011.3 |
| 20260903194605 | 95 | 126 | 8.0 | 14.0 | 0.00 | 0.00 | 0.00 | 55 | 1011.3 |
| 20260903194505 | 95 | 121 | 8.0 | 15.0 | 0.00 | 0.00 | 0.00 | 53 | 1011.2 |
| 20260903194405 | 95 | 119 | 8.0 | 16.0 | 0.00 | 0.00 | 0.00 | 55 | 1011.3 |
| 20260903194305 | 95 | 120 | 8.0 | 16.0 | 0.00 | 0.00 | 0.00 | 55 | 1011.3 |
| 20260903194204 | 95 | 120 | 9.0 | 16.0 | 0.00 | 0.00 | 0.00 | 55 | 1011.3 |
| 20260903194105 | 95 | 120 | 9.0 | 16.0 | 0.00 | 0.00 | 0.00 | 55 | 1011.3 |
| 20260903194005 | 95 | 121 | 9.0 | 16.0 | 0.00 | 0.00 | 0.00 | 55 | 1011.3 |
| 20260903193905 | 95 | 120 | 9.0 | 16.0 | 0.00 | 0.00 | 0.00 | 55 | 1011.3 |
| 20260903193805 | 94 | 119 | 10.0 | 17.0 | 0.00 | 0.00 | 0.00 | 55 | 1011.3 |
| 20260903193705 | 94 | 118 | 10.0 | 17.0 | 0.00 | 0.00 | 0.00 | 55 | 1011.3 |
| 20260903193606 | 94 | 118 | 9.0 | 17.0 | 0.00 | 0.00 | 0.00 | 55 | 1011.3 |
| 20260903193505 | 94 | 121 | 9.0 | 17.0 | 0.00 | 0.00 | 0.00 | 55 | 1011.4 |
| 20260903193405 | 94 | 124 | 8.0 | 17.0 | 0.00 | 0.00 | 0.00 | 54 | 1011.4 |
| 20260903193205 | 95 | 123 | 9.0 | 18.0 | 0.00 | 0.00 | 0.00 | 54 | 1011.4 |
| 20260903193104 | 95 | 124 | 9.0 | 18.0 | 0.00 | 0.00 | 0.00 | 53 | 1011.5 |
| 20260903192905 | 95 | 122 | 8.0 | 18.0 | 0.00 | 0.00 | 0.00 | 54 | 1011.5 |
| 20260903192704 | 94 | 125 | 8.0 | 18.0 | 0.00 | 0.00 | 0.00 | 54 | 1011.5 |
| 20260903192605 | 94 | 124 | 8.0 | 18.0 | 0.00 | 0.00 | 0.00 | 54 | 1011.5 |
| 20260903192404 | 94 | 123 | 8.0 | 18.0 | 0.00 | 0.00 | 0.00 | 54 | 1011.6 |
| 20260903192306 | 94 | 121 | 8.0 | 18.0 | 0.00 | 0.00 | 0.00 | 54 | 1011.6 |
| 20260903192205 | 94 | 119 | 7.0 | 15.0 | 0.00 | 0.00 | 0.00 | 54 | 1011.6 |
| 20260903192104 | 94 | 119 | 8.0 | 14.0 | 0.00 | 0.00 | 0.00 | 54 | 1011.6 |
| 20260903191904 | 94 | 121 | 8.0 | 15.0 | 0.00 | 0.00 | 0.00 | 55 | 1011.7 |
| 20260903191805 | 94 | 120 | 8.0 | 15.0 | 0.00 | 0.00 | 0.00 | 54 | 1011.8 |
| 20260903191706 | 94 | 121 | 8.0 | 15.0 | 0.00 | 0.00 | 0.00 | 54 | 1011.8 |
| 20260903191605 | 94 | 122 | 8.0 | 15.0 | 0.00 | 0.00 | 0.00 | 54 | 1011.8 |
| 20260903191505 | 94 | 122 | 8.0 | 15.0 | 0.00 | 0.00 | 0.00 | 54 | 1011.8 |
| 20260903191305 | 94 | 123 | 8.0 | 17.0 | 0.00 | 0.00 | 0.00 | 55 | 1011.8 |
| 20260903191206 | 94 | 123 | 8.0 | 17.0 | 0.00 | 0.00 | 0.00 | 54 | 1011.8 |
| 20260903191105 | 94 | 121 | 8.0 | 17.0 | 0.00 | 0.00 | 0.00 | 55 | 1011.9 |
| 20260903191005 | 94 | 120 | 8.0 | 17.0 | 0.00 | 0.00 | 0.00 | 55 | 1011.9 |
| 20260903190905 | 94 | 121 | 8.0 | 17.0 | 0.00 | 0.00 | 0.00 | 55 | 1011.9 |
| 20260903190805 | 94 | 122 | 8.0 | 17.0 | 0.00 | 0.00 | 0.00 | 55 | 1011.9 |
| 20260903190705 | 94 | 120 | 9.0 | 17.0 | 0.00 | 0.00 | 0.00 | 55 | 1012.0 |
| 20260903190605 | 93 | 118 | 9.0 | 17.0 | 0.00 | 0.00 | 0.00 | 55 | 1012.0 |
| 20260903190504 | 93 | 117 | 9.0 | 17.0 | 0.00 | 0.00 | 0.00 | 56 | 1012.0 |
| 20260903190206 | 93 | 122 | 8.0 | 14.0 | 0.00 | 0.00 | 0.00 | 56 | 1012.0 |
| 20260903190005 | 93 | 126 | 8.0 | 14.0 | 0.00 | 0.00 | 0.00 | 55 | 1012.1 |
| 20260903185904 | 93 | 124 | 8.0 | 14.0 | 0.00 | 0.00 | 0.00 | 55 | 1012.1 |
| 20260903185805 | 93 | 123 | 8.0 | 14.0 | 0.00 | 0.00 | 0.00 | 55 | 1012.1 |
| 20260903185704 | 93 | 125 | 7.0 | 14.0 | 0.00 | 0.00 | 0.00 | 56 | 1012.2 |
| 20260903185605 | 93 | 126 | 6.0 | 13.0 | 0.00 | 0.00 | 0.00 | 56 | 1012.2 |
| 20260903185504 | 93 | 126 | 7.0 | 12.0 | 0.00 | 0.00 | 0.00 | 55 | 1012.2 |
| 20260903185306 | 92 | 121 | 7.0 | 14.0 | 0.00 | 0.00 | 0.00 | 56 | 1012.2 |
| 20260903185206 | 92 | 117 | 7.0 | 14.0 | 0.00 | 0.00 | 0.00 | 56 | 1012.2 |
| 20260903185105 | 92 | 115 | 7.0 | 14.0 | 0.00 | 0.00 | 0.00 | 55 | 1012.3 |
| 20260903184905 | 93 | 119 | 7.0 | 14.0 | 0.00 | 0.00 | 0.00 | 56 | 1012.3 |
| 20260903184704 | 93 | 116 | 8.0 | 15.0 | 0.00 | 0.00 | 0.00 | 55 | 1012.4 |
| 20260903184605 | 93 | 116 | 9.0 | 15.0 | 0.00 | 0.00 | 0.00 | 55 | 1012.4 |
| 20260903184404 | 93 | 117 | 8.0 | 15.0 | 0.00 | 0.00 | 0.00 | 56 | 1012.4 |
| 20260903184104 | 92 | 120 | 8.0 | 15.0 | 0.00 | 0.00 | 0.00 | 56 | 1012.4 |
| 20260903184005 | 92 | 118 | 8.0 | 15.0 | 0.00 | 0.00 | 0.00 | 56 | 1012.5 |
| 20260903183904 | 92 | 116 | 7.0 | 15.0 | 0.00 | 0.00 | 0.00 | 56 | 1012.4 |
| 20260903183805 | 92 | 119 | 7.0 | 15.0 | 0.00 | 0.00 | 0.00 | 57 | 1012.4 |
| 20260903183704 | 92 | 122 | 7.0 | 13.0 | 0.00 | 0.00 | 0.00 | 58 | 1012.5 |
| 20260903183605 | 91 | 120 | 7.0 | 13.0 | 0.00 | 0.00 | 0.00 | 58 | 1012.5 |
| 20260903183504 | 91 | 121 | 8.0 | 14.0 | 0.00 | 0.00 | 0.00 | 58 | 1012.5 |
| 20260903183405 | 91 | 121 | 8.0 | 14.0 | 0.00 | 0.00 | 0.00 | 59 | 1012.5 |
| 20260903183304 | 91 | 120 | 7.0 | 14.0 | 0.00 | 0.00 | 0.00 | 59 | 1012.6 |
| 20260903183205 | 90 | 119 | 8.0 | 14.0 | 0.00 | 0.00 | 0.00 | 59 | 1012.5 |
| 20260903183104 | 90 | 118 | 8.0 | 14.0 | 0.00 | 0.00 | 0.00 | 59 | 1012.6 |
| 20260903183006 | 90 | 122 | 8.0 | 14.0 | 0.00 | 0.00 | 0.00 | 59 | 1012.6 |
| 20260903182905 | 90 | 122 | 8.0 | 14.0 | 0.00 | 0.00 | 0.00 | 58 | 1012.6 |
| 20260903182805 | 90 | 121 | 8.0 | 14.0 | 0.00 | 0.00 | 0.00 | 58 | 1012.6 |
| 20260903182605 | 90 | 124 | 7.0 | 14.0 | 0.00 | 0.00 | 0.00 | 58 | 1012.7 |
| 20260903182504 | 90 | 124 | 7.0 | 14.0 | 0.00 | 0.00 | 0.00 | 58 | 1012.7 |
| 20260903182405 | 90 | 125 | 7.0 | 14.0 | 0.00 | 0.00 | 0.00 | 59 | 1012.7 |
| 20260903182306 | 90 | 126 | 7.0 | 14.0 | 0.00 | 0.00 | 0.00 | 59 | 1012.7 |
| 20260903182204 | 90 | 127 | 7.0 | 14.0 | 0.00 | 0.00 | 0.00 | 58 | 1012.8 |
| 20260903182105 | 90 | 126 | 7.0 | 14.0 | 0.00 | 0.00 | 0.00 | 58 | 1012.8 |
| 20260903182005 | 90 | 125 | 7.0 | 14.0 | 0.00 | 0.00 | 0.00 | 58 | 1012.8 |
| 20260903181804 | 90 | 122 | 6.0 | 13.0 | 0.00 | 0.00 | 0.00 | 58 | 1012.8 |
| 20260903181705 | 90 | 122 | 6.0 | 12.0 | 0.00 | 0.00 | 0.00 | 58 | 1012.8 |
| 20260903181605 | 90 | 123 | 6.0 | 12.0 | 0.00 | 0.00 | 0.00 | 59 | 1012.8 |
| 20260903181505 | 90 | 125 | 7.0 | 12.0 | 0.00 | 0.00 | 0.00 | 59 | 1012.8 |
| 20260903181405 | 90 | 127 | 7.0 | 12.0 | 0.00 | 0.00 | 0.00 | 58 | 1012.8 |
| 20260903181205 | 90 | 129 | 7.0 | 12.0 | 0.00 | 0.00 | 0.00 | 58 | 1012.9 |
| 20260903181105 | 90 | 130 | 7.0 | 12.0 | 0.00 | 0.00 | 0.00 | 59 | 1012.8 |
| 20260903180705 | 90 | 135 | 7.0 | 12.0 | 0.00 | 0.00 | 0.00 | 59 | 1012.9 |
| 20260903180605 | 90 | 134 | 7.0 | 12.0 | 0.00 | 0.00 | 0.00 | 59 | 1012.8 |
| 20260903180505 | 90 | 133 | 7.0 | 12.0 | 0.00 | 0.00 | 0.00 | 59 | 1012.9 |
| 20260903180405 | 90 | 136 | 7.0 | 12.0 | 0.00 | 0.00 | 0.00 | 59 | 1012.9 |
| 20260903180305 | 90 | 136 | 7.0 | 12.0 | 0.00 | 0.00 | 0.00 | 59 | 1013.0 |
| 20260903180205 | 90 | 137 | 7.0 | 12.0 | 0.00 | 0.00 | 0.00 | 60 | 1012.9 |
| 20260903180005 | 89 | 139 | 7.0 | 12.0 | 0.00 | 0.00 | 0.00 | 60 | 1013.0 |
| 20260903175704 | 89 | 142 | 7.0 | 12.0 | 0.00 | 0.00 | 0.00 | 60 | 1013.0 |
| 20260903175605 | 89 | 146 | 7.0 | 12.0 | 0.00 | 0.00 | 0.00 | 61 | 1013.0 |
| 20260903175505 | 89 | 150 | 6.0 | 12.0 | 0.00 | 0.00 | 0.00 | 61 | 1013.0 |
| 20260903175405 | 89 | 148 | 6.0 | 12.0 | 0.00 | 0.00 | 0.00 | 61 | 1013.0 |
| 20260903175306 | 89 | 150 | 6.0 | 11.0 | 0.00 | 0.00 | 0.00 | 61 | 1013.1 |
| 20260903175205 | 89 | 149 | 6.0 | 10.0 | 0.00 | 0.00 | 0.00 | 61 | 1013.0 |
| 20260903175104 | 89 | 145 | 6.0 | 11.0 | 0.00 | 0.00 | 0.00 | 61 | 1013.0 |
| 20260903175005 | 89 | 142 | 7.0 | 12.0 | 0.00 | 0.00 | 0.00 | 60 | 1013.1 |
| 20260903174904 | 89 | 138 | 7.0 | 14.0 | 0.00 | 0.00 | 0.00 | 61 | 1013.2 |
| 20260903174805 | 89 | 134 | 6.0 | 14.0 | 0.00 | 0.00 | 0.00 | 61 | 1013.1 |
| 20260903174704 | 89 | 128 | 7.0 | 14.0 | 0.00 | 0.00 | 0.00 | 61 | 1013.1 |
| 20260903174605 | 89 | 125 | 7.0 | 14.0 | 0.00 | 0.00 | 0.00 | 62 | 1013.2 |
| 20260903174405 | 89 | 118 | 7.0 | 14.0 | 0.00 | 0.00 | 0.00 | 61 | 1013.2 |
| 20260903174306 | 89 | 115 | 7.0 | 14.0 | 0.00 | 0.00 | 0.00 | 62 | 1013.1 |
| 20260903174205 | 89 | 112 | 6.0 | 14.0 | 0.00 | 0.00 | 0.00 | 62 | 1013.1 |
| 20260903174005 | 89 | 108 | 6.0 | 14.0 | 0.00 | 0.00 | 0.00 | 62 | 1013.1 |
| 20260903173904 | 89 | 106 | 6.0 | 12.0 | 0.00 | 0.00 | 0.00 | 62 | 1013.2 |
| 20260903173805 | 89 | 106 | 6.0 | 12.0 | 0.00 | 0.00 | 0.00 | 63 | 1013.2 |
| 20260903173704 | 89 | 107 | 6.0 | 12.0 | 0.00 | 0.00 | 0.00 | 63 | 1013.2 |
| 20260903173605 | 89 | 108 | 5.0 | 10.0 | 0.00 | 0.00 | 0.00 | 63 | 1013.2 |
| 20260903173505 | 89 | 110 | 5.0 | 10.0 | 0.00 | 0.00 | 0.00 | 63 | 1013.3 |
| 20260903173405 | 88 | 110 | 5.0 | 10.0 | 0.00 | 0.00 | 0.00 | 63 | 1013.3 |
| 20260903173305 | 88 | 107 | 6.0 | 10.0 | 0.00 | 0.00 | 0.00 | 63 | 1013.2 |
| 20260903173204 | 88 | 108 | 6.0 | 10.0 | 0.00 | 0.00 | 0.00 | 63 | 1013.3 |
| 20260903173105 | 88 | 111 | 6.0 | 11.0 | 0.00 | 0.00 | 0.00 | 63 | 1013.3 |
| 20260903173005 | 88 | 115 | 6.0 | 11.0 | 0.00 | 0.00 | 0.00 | 63 | 1013.3 |
| 20260903172805 | 88 | 118 | 6.0 | 11.0 | 0.00 | 0.00 | 0.00 | 64 | 1013.3 |
| 20260903172704 | 88 | 118 | 6.0 | 11.0 | 0.00 | 0.00 | 0.00 | 64 | 1013.3 |
| 20260903172605 | 88 | 116 | 6.0 | 12.0 | 0.00 | 0.00 | 0.00 | 64 | 1013.4 |
| 20260903172504 | 88 | 115 | 6.0 | 12.0 | 0.00 | 0.00 | 0.00 | 64 | 1013.3 |
| 20260903172306 | 88 | 114 | 6.0 | 12.0 | 0.00 | 0.00 | 0.00 | 63 | 1013.4 |
| 20260903172205 | 88 | 114 | 5.0 | 12.0 | 0.00 | 0.00 | 0.00 | 63 | 1013.4 |
| 20260903172105 | 89 | 116 | 5.0 | 12.0 | 0.00 | 0.00 | 0.00 | 64 | 1013.4 |
| 20260903172005 | 89 | 115 | 5.0 | 12.0 | 0.00 | 0.00 | 0.00 | 64 | 1013.3 |
| 20260903171806 | 89 | 117 | 4.0 | 12.0 | 0.00 | 0.00 | 0.00 | 63 | 1013.3 |
| 20260903171704 | 89 | 118 | 4.0 | 12.0 | 0.00 | 0.00 | 0.00 | 64 | 1013.3 |
| 20260903171605 | 89 | 120 | 4.0 | 10.0 | 0.00 | 0.00 | 0.00 | 63 | 1013.4 |
| 20260903171505 | 89 | 122 | 4.0 | 10.0 | 0.00 | 0.00 | 0.00 | 63 | 1013.4 |
| 20260903171305 | 88 | 128 | 5.0 | 10.0 | 0.00 | 0.00 | 0.00 | 66 | 1013.4 |
| 20260903171205 | 88 | 132 | 5.0 | 10.0 | 0.00 | 0.00 | 0.00 | 66 | 1013.4 |
| 20260903171105 | 88 | 134 | 5.0 | 10.0 | 0.00 | 0.00 | 0.00 | 66 | 1013.4 |
| 20260903171006 | 88 | 134 | 5.0 | 10.0 | 0.00 | 0.00 | 0.00 | 66 | 1013.4 |
| 20260903170904 | 88 | 137 | 5.0 | 10.0 | 0.00 | 0.00 | 0.00 | 66 | 1013.3 |
| 20260903170805 | 88 | 141 | 6.0 | 10.0 | 0.00 | 0.00 | 0.00 | 66 | 1013.4 |
| 20260903170704 | 88 | 142 | 6.0 | 10.0 | 0.00 | 0.00 | 0.00 | 66 | 1013.3 |
| 20260903170605 | 88 | 146 | 5.0 | 10.0 | 0.00 | 0.00 | 0.00 | 66 | 1013.4 |
| 20260903170405 | 88 | 151 | 5.0 | 10.0 | 0.00 | 0.00 | 0.00 | 66 | 1013.4 |
| 20260903170305 | 87 | 149 | 5.0 | 10.0 | 0.00 | 0.00 | 0.00 | 66 | 1013.4 |
| 20260903170205 | 87 | 148 | 5.0 | 10.0 | 0.00 | 0.00 | 0.00 | 66 | 1013.3 |
| 20260903170105 | 87 | 146 | 5.0 | 10.0 | 0.00 | 0.00 | 0.00 | 66 | 1013.3 |
| 20260903170005 | 87 | 146 | 5.0 | 10.0 | 0.00 | 0.00 | 0.00 | 66 | 1013.4 |
| 20260903165904 | 87 | 143 | 5.0 | 10.0 | 0.00 | 0.00 | 0.00 | 66 | 1013.4 |
| 20260903165805 | 87 | 140 | 5.0 | 10.0 | 0.00 | 0.00 | 0.00 | 66 | 1013.4 |
| 20260903165705 | 87 | 138 | 5.0 | 10.0 | 0.00 | 0.00 | 0.00 | 66 | 1013.4 |
| 20260903165605 | 87 | 137 | 5.0 | 9.0 | 0.00 | 0.00 | 0.00 | 66 | 1013.4 |
| 20260903165504 | 87 | 138 | 4.0 | 9.0 | 0.00 | 0.00 | 0.00 | 66 | 1013.4 |
| 20260903165405 | 87 | 139 | 4.0 | 9.0 | 0.00 | 0.00 | 0.00 | 66 | 1013.4 |
| 20260903165306 | 87 | 140 | 4.0 | 9.0 | 0.00 | 0.00 | 0.00 | 66 | 1013.4 |
| 20260903165105 | 87 | 139 | 4.0 | 9.0 | 0.00 | 0.00 | 0.00 | 66 | 1013.4 |
| 20260903165005 | 87 | 144 | 4.0 | 9.0 | 0.00 | 0.00 | 0.00 | 66 | 1013.4 |
| 20260903164905 | 87 | 147 | 4.0 | 9.0 | 0.00 | 0.00 | 0.00 | 66 | 1013.4 |
| 20260903164805 | 87 | 149 | 4.0 | 9.0 | 0.00 | 0.00 | 0.00 | 66 | 1013.5 |
| 20260903164705 | 87 | 155 | 4.0 | 9.0 | 0.00 | 0.00 | 0.00 | 66 | 1013.5 |
| 20260903164605 | 87 | 156 | 4.0 | 8.0 | 0.00 | 0.00 | 0.00 | 66 | 1013.4 |
| 20260903164405 | 86 | 156 | 4.0 | 8.0 | 0.00 | 0.00 | 0.00 | 66 | 1013.4 |
| 20260903164204 | 86 | 156 | 5.0 | 8.0 | 0.00 | 0.00 | 0.00 | 66 | 1013.4 |
| 20260903163904 | 86 | 156 | 5.0 | 10.0 | 0.00 | 0.00 | 0.00 | 67 | 1013.4 |
| 20260903163805 | 86 | 157 | 5.0 | 10.0 | 0.00 | 0.00 | 0.00 | 67 | 1013.4 |
| 20260903163704 | 86 | 157 | 6.0 | 10.0 | 0.00 | 0.00 | 0.00 | 67 | 1013.4 |
| 20260903163505 | 86 | 161 | 6.0 | 10.0 | 0.00 | 0.00 | 0.00 | 67 | 1013.4 |
| 20260903163405 | 86 | 163 | 6.0 | 10.0 | 0.00 | 0.00 | 0.00 | 68 | 1013.4 |
| 20260903163304 | 86 | 162 | 6.0 | 10.0 | 0.00 | 0.00 | 0.00 | 67 | 1013.4 |
| 20260903163104 | 86 | 160 | 6.0 | 10.0 | 0.00 | 0.00 | 0.00 | 67 | 1013.4 |
| 20260903163005 | 86 | 161 | 6.0 | 10.0 | 0.00 | 0.00 | 0.00 | 67 | 1013.4 |
| 20260903162904 | 86 | 159 | 6.0 | 10.0 | 0.00 | 0.00 | 0.00 | 67 | 1013.4 |
| 20260903162805 | 86 | 157 | 5.0 | 10.0 | 0.00 | 0.00 | 0.00 | 67 | 1013.4 |
| 20260903162705 | 86 | 158 | 5.0 | 10.0 | 0.00 | 0.00 | 0.00 | 67 | 1013.5 |
| 20260903162605 | 86 | 156 | 5.0 | 10.0 | 0.00 | 0.00 | 0.00 | 68 | 1013.5 |
| 20260903162506 | 86 | 159 | 4.0 | 10.0 | 0.00 | 0.00 | 0.00 | 68 | 1013.4 |
| 20260903162405 | 86 | 156 | 4.0 | 9.0 | 0.00 | 0.00 | 0.00 | 68 | 1013.5 |
| 20260903162306 | 86 | 156 | 4.0 | 9.0 | 0.00 | 0.00 | 0.00 | 68 | 1013.4 |
| 20260903162205 | 86 | 155 | 4.0 | 9.0 | 0.00 | 0.00 | 0.00 | 68 | 1013.5 |
| 20260903162105 | 86 | 157 | 4.0 | 9.0 | 0.00 | 0.00 | 0.00 | 68 | 1013.5 |
| 20260903162004 | 86 | 159 | 5.0 | 8.0 | 0.00 | 0.00 | 0.00 | 68 | 1013.5 |
| 20260903161905 | 86 | 161 | 5.0 | 9.0 | 0.00 | 0.00 | 0.00 | 67 | 1013.5 |
| 20260903161804 | 86 | 163 | 5.0 | 9.0 | 0.00 | 0.00 | 0.00 | 67 | 1013.4 |
| 20260903161705 | 86 | 160 | 4.0 | 9.0 | 0.00 | 0.00 | 0.00 | 68 | 1013.5 |
| 20260903161604 | 86 | 158 | 4.0 | 9.0 | 0.00 | 0.00 | 0.00 | 68 | 1013.4 |
| 20260903161405 | 85 | 159 | 5.0 | 9.0 | 0.00 | 0.00 | 0.00 | 68 | 1013.3 |
| 20260903161305 | 85 | 161 | 5.0 | 9.0 | 0.00 | 0.00 | 0.00 | 68 | 1013.3 |
| 20260903161204 | 85 | 164 | 4.0 | 9.0 | 0.00 | 0.00 | 0.00 | 68 | 1013.3 |
| 20260903161105 | 86 | 166 | 4.0 | 9.0 | 0.00 | 0.00 | 0.00 | 68 | 1013.3 |
| 20260903161005 | 86 | 168 | 4.0 | 9.0 | 0.00 | 0.00 | 0.00 | 68 | 1013.3 |
| 20260903160905 | 86 | 168 | 4.0 | 8.0 | 0.00 | 0.00 | 0.00 | 68 | 1013.2 |
| 20260903160805 | 86 | 169 | 4.0 | 8.0 | 0.00 | 0.00 | 0.00 | 68 | 1013.3 |
| 20260903160705 | 86 | 172 | 4.0 | 8.0 | 0.00 | 0.00 | 0.00 | 68 | 1013.3 |
| 20260903160606 | 86 | 177 | 4.0 | 8.0 | 0.00 | 0.00 | 0.00 | 68 | 1013.3 |
| 20260903160305 | 85 | 187 | 4.0 | 8.0 | 0.00 | 0.00 | 0.00 | 68 | 1013.3 |
| 20260903160005 | 85 | 196 | 4.0 | 8.0 | 0.00 | 0.00 | 0.00 | 69 | 1013.3 |
| 20260903155805 | 85 | 207 | 4.0 | 8.0 | 0.00 | 0.00 | 0.00 | 69 | 1013.2 |
| 20260903155704 | 85 | 209 | 5.0 | 10.0 | 0.00 | 0.00 | 0.00 | 69 | 1013.2 |
| 20260903155505 | 85 | 208 | 5.0 | 10.0 | 0.00 | 0.00 | 0.00 | 69 | 1013.2 |
| 20260903155306 | 85 | 206 | 6.0 | 11.0 | 0.00 | 0.00 | 0.00 | 69 | 1013.2 |
| 20260903155204 | 85 | 203 | 6.0 | 11.0 | 0.00 | 0.00 | 0.00 | 69 | 1013.2 |
| 20260903155105 | 85 | 202 | 7.0 | 14.0 | 0.00 | 0.00 | 0.00 | 69 | 1013.2 |
| 20260903155005 | 85 | 204 | 7.0 | 14.0 | 0.00 | 0.00 | 0.00 | 69 | 1013.2 |
| 20260903154905 | 85 | 203 | 7.0 | 14.0 | 0.00 | 0.00 | 0.00 | 69 | 1013.2 |
| 20260903154805 | 85 | 201 | 7.0 | 14.0 | 0.00 | 0.00 | 0.00 | 69 | 1013.1 |
| 20260903154705 | 85 | 199 | 7.0 | 14.0 | 0.00 | 0.00 | 0.00 | 69 | 1013.1 |
| 20260903154604 | 85 | 199 | 7.0 | 15.0 | 0.00 | 0.00 | 0.00 | 69 | 1013.1 |
| 20260903154205 | 85 | 199 | 7.0 | 15.0 | 0.00 | 0.00 | 0.00 | 69 | 1013.0 |
| 20260903154104 | 85 | 199 | 6.0 | 15.0 | 0.00 | 0.00 | 0.00 | 69 | 1013.0 |
| 20260903154005 | 85 | 198 | 6.0 | 15.0 | 0.00 | 0.00 | 0.00 | 69 | 1013.0 |
| 20260903153905 | 85 | 197 | 6.0 | 15.0 | 0.00 | 0.00 | 0.00 | 69 | 1013.0 |
| 20260903153705 | 85 | 195 | 6.0 | 15.0 | 0.00 | 0.00 | 0.00 | 69 | 1012.9 |
| 20260903153604 | 86 | 193 | 6.0 | 13.0 | 0.00 | 0.00 | 0.00 | 69 | 1012.9 |
| 20260903153505 | 86 | 193 | 6.0 | 13.0 | 0.00 | 0.00 | 0.00 | 69 | 1012.9 |
| 20260903153404 | 86 | 193 | 7.0 | 13.0 | 0.00 | 0.00 | 0.00 | 69 | 1012.9 |
| 20260903153305 | 86 | 194 | 7.0 | 13.0 | 0.00 | 0.00 | 0.00 | 69 | 1012.9 |
| 20260903153204 | 86 | 195 | 7.0 | 13.0 | 0.00 | 0.00 | 0.00 | 69 | 1012.8 |
| 20260903153105 | 86 | 196 | 7.0 | 13.0 | 0.00 | 0.00 | 0.00 | 70 | 1012.8 |
| 20260903153004 | 85 | 196 | 8.0 | 13.0 | 0.00 | 0.00 | 0.00 | 70 | 1012.8 |
| 20260903152905 | 85 | 197 | 8.0 | 13.0 | 0.00 | 0.00 | 0.00 | 70 | 1012.8 |
| 20260903152804 | 85 | 200 | 8.0 | 13.0 | 0.00 | 0.00 | 0.00 | 70 | 1012.8 |
| 20260903152705 | 85 | 204 | 8.0 | 13.0 | 0.00 | 0.00 | 0.00 | 70 | 1012.8 |
| 20260903152604 | 85 | 206 | 8.0 | 15.0 | 0.00 | 0.00 | 0.00 | 70 | 1012.8 |
| 20260903152405 | 85 | 209 | 7.0 | 15.0 | 0.00 | 0.00 | 0.00 | 70 | 1012.8 |
| 20260903152306 | 85 | 209 | 8.0 | 15.0 | 0.00 | 0.00 | 0.00 | 70 | 1012.8 |
| 20260903152204 | 85 | 209 | 8.0 | 18.0 | 0.00 | 0.00 | 0.00 | 70 | 1012.8 |
| 20260903152105 | 85 | 208 | 8.0 | 18.0 | 0.00 | 0.00 | 0.00 | 70 | 1012.8 |
| 20260903152004 | 85 | 207 | 8.0 | 19.0 | 0.00 | 0.00 | 0.00 | 70 | 1012.7 |
| 20260903151905 | 85 | 206 | 9.0 | 19.0 | 0.00 | 0.00 | 0.00 | 70 | 1012.7 |
| 20260903151804 | 85 | 204 | 9.0 | 19.0 | 0.00 | 0.00 | 0.00 | 70 | 1012.7 |
| 20260903151705 | 85 | 203 | 9.0 | 19.0 | 0.00 | 0.00 | 0.00 | 71 | 1012.6 |
| 20260903151604 | 85 | 202 | 9.0 | 19.0 | 0.00 | 0.00 | 0.00 | 71 | 1012.6 |
| 20260903151304 | 85 | 202 | 10.0 | 19.0 | 0.00 | 0.00 | 0.00 | 71 | 1012.6 |
| 20260903151205 | 85 | 202 | 10.0 | 19.0 | 0.00 | 0.00 | 0.00 | 71 | 1012.6 |
| 20260903151005 | 85 | 201 | 9.0 | 17.0 | 0.00 | 0.00 | 0.00 | 71 | 1012.6 |
| 20260903150604 | 85 | 203 | 9.0 | 19.0 | 0.00 | 0.00 | 0.00 | 71 | 1012.5 |
| 20260903150505 | 85 | 203 | 9.0 | 19.0 | 0.00 | 0.00 | 0.00 | 71 | 1012.5 |
| 20260903150305 | 85 | 203 | 9.0 | 19.0 | 0.00 | 0.00 | 0.00 | 71 | 1012.5 |
| 20260903150205 | 85 | 204 | 8.0 | 19.0 | 0.00 | 0.00 | 0.00 | 71 | 1012.5 |
| 20260903150104 | 85 | 206 | 8.0 | 19.0 | 0.00 | 0.00 | 0.00 | 72 | 1012.4 |
| 20260903150006 | 85 | 207 | 9.0 | 19.0 | 0.00 | 0.00 | 0.00 | 73 | 1012.4 |
| 20260903145904 | 84 | 206 | 9.0 | 19.0 | 0.00 | 0.00 | 0.00 | 73 | 1012.5 |
| 20260903145805 | 84 | 205 | 9.0 | 19.0 | 0.00 | 0.00 | 0.00 | 72 | 1012.5 |
| 20260903145705 | 84 | 205 | 9.0 | 19.0 | 0.00 | 0.00 | 0.00 | 72 | 1012.4 |
| 20260903145604 | 84 | 205 | 9.0 | 16.0 | 0.00 | 0.00 | 0.00 | 72 | 1012.5 |
| 20260903145505 | 84 | 204 | 9.0 | 15.0 | 0.00 | 0.00 | 0.00 | 74 | 1012.4 |
| 20260903145405 | 84 | 202 | 9.0 | 15.0 | 0.00 | 0.00 | 0.00 | 74 | 1012.4 |
| 20260903145306 | 84 | 203 | 9.0 | 15.0 | 0.00 | 0.00 | 0.00 | 74 | 1012.4 |
| 20260903145204 | 84 | 202 | 9.0 | 15.0 | 0.00 | 0.00 | 0.00 | 74 | 1012.5 |
| 20260903145105 | 84 | 199 | 9.0 | 15.0 | 0.00 | 0.00 | 0.00 | 74 | 1012.4 |
| 20260903145005 | 84 | 198 | 9.0 | 15.0 | 0.00 | 0.00 | 0.00 | 74 | 1012.5 |
| 20260903144905 | 84 | 199 | 9.0 | 15.0 | 0.00 | 0.00 | 0.00 | 74 | 1012.5 |
| 20260903144805 | 84 | 200 | 9.0 | 15.0 | 0.00 | 0.00 | 0.00 | 75 | 1012.5 |
| 20260903144704 | 84 | 200 | 8.0 | 14.0 | 0.00 | 0.00 | 0.00 | 75 | 1012.5 |
| 20260903144605 | 84 | 200 | 8.0 | 14.0 | 0.00 | 0.00 | 0.00 | 74 | 1012.5 |
| 20260903144505 | 84 | 202 | 8.0 | 14.0 | 0.00 | 0.00 | 0.00 | 75 | 1012.5 |
| 20260903144405 | 84 | 205 | 8.0 | 14.0 | 0.00 | 0.00 | 0.00 | 75 | 1012.5 |
| 20260903144304 | 84 | 206 | 8.0 | 14.0 | 0.00 | 0.00 | 0.00 | 75 | 1012.5 |
| 20260903144105 | 83 | 211 | 8.0 | 14.0 | 0.00 | 0.00 | 0.00 | 76 | 1012.5 |
| 20260903144005 | 83 | 214 | 8.0 | 14.0 | 0.00 | 0.00 | 0.00 | 76 | 1012.5 |
| 20260903143904 | 83 | 216 | 8.0 | 14.0 | 0.00 | 0.00 | 0.00 | 76 | 1012.5 |
| 20260903143804 | 83 | 216 | 8.0 | 14.0 | 0.00 | 0.00 | 0.00 | 76 | 1012.5 |
| 20260903143704 | 83 | 217 | 9.0 | 14.0 | 0.00 | 0.00 | 0.00 | 76 | 1012.5 |
| 20260903143605 | 83 | 216 | 9.0 | 14.0 | 0.00 | 0.00 | 0.00 | 76 | 1012.5 |
| 20260903143505 | 83 | 214 | 8.0 | 14.0 | 0.00 | 0.00 | 0.00 | 76 | 1012.5 |
| 20260903143405 | 83 | 214 | 8.0 | 14.0 | 0.00 | 0.00 | 0.00 | 77 | 1012.5 |
| 20260903143305 | 83 | 212 | 8.0 | 14.0 | 0.00 | 0.00 | 0.00 | 77 | 1012.5 |
| 20260903143205 | 83 | 213 | 8.0 | 14.0 | 0.00 | 0.00 | 0.00 | 77 | 1012.5 |
| 20260903143005 | 83 | 207 | 8.0 | 14.0 | 0.00 | 0.00 | 0.00 | 77 | 1012.4 |
| 20260903142905 | 83 | 205 | 8.0 | 14.0 | 0.00 | 0.00 | 0.00 | 77 | 1012.5 |
| 20260903142804 | 83 | 203 | 7.0 | 14.0 | 0.00 | 0.00 | 0.00 | 78 | 1012.5 |
| 20260903142704 | 83 | 204 | 7.0 | 14.0 | 0.00 | 0.00 | 0.00 | 78 | 1012.5 |
| 20260903142605 | 83 | 201 | 8.0 | 13.0 | 0.00 | 0.00 | 0.00 | 78 | 1012.4 |
| 20260903142504 | 83 | 204 | 8.0 | 17.0 | 0.00 | 0.00 | 0.00 | 78 | 1012.4 |
| 20260903142404 | 83 | 204 | 8.0 | 17.0 | 0.00 | 0.00 | 0.00 | 78 | 1012.4 |
| 20260903142306 | 82 | 204 | 9.0 | 17.0 | 0.00 | 0.00 | 0.00 | 78 | 1012.5 |
| 20260903142205 | 82 | 204 | 9.0 | 17.0 | 0.00 | 0.00 | 0.00 | 78 | 1012.4 |
| 20260903142105 | 82 | 204 | 8.0 | 17.0 | 0.00 | 0.00 | 0.00 | 78 | 1012.4 |
| 20260903142004 | 82 | 205 | 8.0 | 17.0 | 0.00 | 0.00 | 0.00 | 78 | 1012.4 |
| 20260903141905 | 82 | 206 | 9.0 | 17.0 | 0.00 | 0.00 | 0.00 | 78 | 1012.4 |
| 20260903141804 | 82 | 207 | 9.0 | 17.0 | 0.00 | 0.00 | 0.00 | 78 | 1012.4 |
| 20260903141705 | 82 | 205 | 8.0 | 17.0 | 0.00 | 0.00 | 0.00 | 78 | 1012.4 |
| 20260903141604 | 82 | 208 | 8.0 | 17.0 | 0.00 | 0.00 | 0.00 | 78 | 1012.4 |
| 20260903141505 | 82 | 207 | 8.0 | 17.0 | 0.00 | 0.00 | 0.00 | 78 | 1012.4 |
| 20260903141405 | 82 | 206 | 8.0 | 17.0 | 0.00 | 0.00 | 0.00 | 78 | 1012.4 |
| 20260903141204 | 82 | 205 | 8.0 | 15.0 | 0.00 | 0.00 | 0.00 | 79 | 1012.5 |
| 20260903141105 | 82 | 206 | 8.0 | 15.0 | 0.00 | 0.00 | 0.00 | 79 | 1012.5 |
| 20260903140905 | 82 | 204 | 8.0 | 15.0 | 0.00 | 0.00 | 0.00 | 79 | 1012.5 |
| 20260903140804 | 82 | 203 | 8.0 | 15.0 | 0.00 | 0.00 | 0.00 | 79 | 1012.5 |
| 20260903140705 | 82 | 202 | 8.0 | 15.0 | 0.00 | 0.00 | 0.00 | 79 | 1012.6 |
| 20260903140604 | 82 | 201 | 9.0 | 15.0 | 0.00 | 0.00 | 0.00 | 79 | 1012.6 |
| 20260903140505 | 82 | 199 | 9.0 | 16.0 | 0.00 | 0.00 | 0.00 | 79 | 1012.5 |
| 20260903140404 | 82 | 198 | 9.0 | 16.0 | 0.00 | 0.00 | 0.00 | 79 | 1012.6 |
| 20260903140105 | 82 | 196 | 10.0 | 16.0 | 0.00 | 0.00 | 0.00 | 79 | 1012.5 |
| 20260903140004 | 82 | 195 | 10.0 | 16.0 | 0.00 | 0.00 | 0.00 | 80 | 1012.5 |
| 20260903135805 | 82 | 194 | 10.0 | 16.0 | 0.00 | 0.00 | 0.00 | 80 | 1012.6 |
| 20260903135705 | 82 | 192 | 10.0 | 16.0 | 0.00 | 0.00 | 0.00 | 80 | 1012.6 |
| 20260903135604 | 82 | 191 | 9.0 | 16.0 | 0.00 | 0.00 | 0.00 | 79 | 1012.7 |
| 20260903135505 | 82 | 190 | 9.0 | 16.0 | 0.00 | 0.00 | 0.00 | 79 | 1012.6 |
| 20260903135404 | 82 | 192 | 8.0 | 16.0 | 0.00 | 0.00 | 0.00 | 79 | 1012.6 |
| 20260903135306 | 82 | 192 | 8.0 | 15.0 | 0.00 | 0.00 | 0.00 | 80 | 1012.6 |
| 20260903135204 | 82 | 190 | 7.0 | 14.0 | 0.00 | 0.00 | 0.00 | 80 | 1012.5 |
| 20260903135004 | 82 | 189 | 6.0 | 12.0 | 0.00 | 0.00 | 0.00 | 80 | 1012.6 |
| 20260903134904 | 82 | 191 | 6.0 | 12.0 | 0.00 | 0.00 | 0.00 | 80 | 1012.6 |
| 20260903134804 | 82 | 190 | 6.0 | 14.0 | 0.00 | 0.00 | 0.00 | 80 | 1012.6 |
| 20260903134705 | 82 | 191 | 6.0 | 14.0 | 0.00 | 0.00 | 0.00 | 80 | 1012.6 |
| 20260903134504 | 81 | 190 | 7.0 | 14.0 | 0.00 | 0.00 | 0.00 | 80 | 1012.6 |
| 20260903134404 | 81 | 190 | 7.0 | 14.0 | 0.00 | 0.00 | 0.00 | 81 | 1012.6 |
| 20260903134305 | 81 | 191 | 7.0 | 14.0 | 0.00 | 0.00 | 0.00 | 81 | 1012.6 |
| 20260903134204 | 81 | 191 | 7.0 | 14.0 | 0.00 | 0.00 | 0.00 | 81 | 1012.5 |
| 20260903134105 | 81 | 193 | 8.0 | 14.0 | 0.00 | 0.00 | 0.00 | 81 | 1012.6 |
| 20260903134004 | 81 | 193 | 8.0 | 14.0 | 0.00 | 0.00 | 0.00 | 81 | 1012.5 |
| 20260903133905 | 81 | 192 | 8.0 | 14.0 | 0.00 | 0.00 | 0.00 | 81 | 1012.6 |
| 20260903133804 | 81 | 192 | 8.0 | 14.0 | 0.00 | 0.00 | 0.00 | 81 | 1012.5 |
| 20260903133505 | 81 | 193 | 8.0 | 14.0 | 0.00 | 0.00 | 0.00 | 81 | 1012.5 |
| 20260903133405 | 81 | 193 | 7.0 | 14.0 | 0.00 | 0.00 | 0.00 | 81 | 1012.5 |
| 20260903133305 | 81 | 192 | 7.0 | 14.0 | 0.00 | 0.00 | 0.00 | 81 | 1012.5 |
| 20260903133205 | 81 | 193 | 7.0 | 14.0 | 0.00 | 0.00 | 0.00 | 81 | 1012.5 |
| 20260903133104 | 81 | 193 | 7.0 | 14.0 | 0.00 | 0.00 | 0.00 | 81 | 1012.6 |
| 20260903133004 | 81 | 192 | 7.0 | 12.0 | 0.00 | 0.00 | 0.00 | 82 | 1012.5 |
| 20260903132705 | 81 | 192 | 7.0 | 12.0 | 0.00 | 0.00 | 0.00 | 82 | 1012.6 |
| 20260903132604 | 80 | 192 | 7.0 | 12.0 | 0.00 | 0.00 | 0.00 | 82 | 1012.5 |
| 20260903132505 | 81 | 193 | 7.0 | 12.0 | 0.00 | 0.00 | 0.00 | 82 | 1012.5 |
| 20260903132306 | 80 | 191 | 7.0 | 12.0 | 0.00 | 0.00 | 0.00 | 82 | 1012.6 |
| 20260903132205 | 80 | 191 | 7.0 | 12.0 | 0.00 | 0.00 | 0.00 | 82 | 1012.6 |
| 20260903132104 | 80 | 189 | 7.0 | 12.0 | 0.00 | 0.00 | 0.00 | 82 | 1012.6 |
| 20260903132005 | 80 | 189 | 7.0 | 12.0 | 0.00 | 0.00 | 0.00 | 82 | 1012.6 |
| 20260903131904 | 80 | 191 | 7.0 | 12.0 | 0.00 | 0.00 | 0.00 | 82 | 1012.5 |
| 20260903131804 | 80 | 191 | 6.0 | 12.0 | 0.00 | 0.00 | 0.00 | 82 | 1012.6 |
| 20260903131704 | 80 | 191 | 6.0 | 12.0 | 0.00 | 0.00 | 0.00 | 82 | 1012.5 |
| 20260903131605 | 80 | 191 | 7.0 | 12.0 | 0.00 | 0.00 | 0.00 | 82 | 1012.6 |
| 20260903131505 | 80 | 191 | 6.0 | 12.0 | 0.00 | 0.00 | 0.00 | 82 | 1012.6 |
| 20260903131305 | 80 | 194 | 6.0 | 11.0 | 0.00 | 0.00 | 0.00 | 82 | 1012.6 |
| 20260903131204 | 80 | 194 | 6.0 | 11.0 | 0.00 | 0.00 | 0.00 | 82 | 1012.6 |
| 20260903131104 | 80 | 196 | 6.0 | 12.0 | 0.00 | 0.00 | 0.00 | 82 | 1012.6 |
| 20260903130905 | 80 | 195 | 6.0 | 12.0 | 0.00 | 0.00 | 0.00 | 82 | 1012.6 |
| 20260903130605 | 80 | 193 | 7.0 | 12.0 | 0.00 | 0.00 | 0.00 | 83 | 1012.6 |
| 20260903130506 | 80 | 193 | 7.0 | 12.0 | 0.00 | 0.00 | 0.00 | 83 | 1012.6 |
| 20260903130404 | 80 | 192 | 7.0 | 12.0 | 0.00 | 0.00 | 0.00 | 83 | 1012.6 |
| 20260903130304 | 80 | 192 | 7.0 | 12.0 | 0.00 | 0.00 | 0.00 | 83 | 1012.6 |
| 20260903130205 | 80 | 191 | 7.0 | 12.0 | 0.00 | 0.00 | 0.00 | 83 | 1012.6 |
| 20260903130104 | 80 | 190 | 7.0 | 12.0 | 0.00 | 0.00 | 0.00 | 83 | 1012.6 |
| 20260903130005 | 80 | 190 | 6.0 | 12.0 | 0.00 | 0.00 | 0.00 | 83 | 1012.6 |
| 20260903125904 | 80 | 191 | 7.0 | 11.0 | 0.00 | 0.00 | 0.00 | 83 | 1012.6 |
| 20260903125805 | 80 | 191 | 7.0 | 11.0 | 0.00 | 0.00 | 0.00 | 83 | 1012.5 |
| 20260903125604 | 80 | 190 | 7.0 | 13.0 | 0.00 | 0.00 | 0.00 | 83 | 1012.5 |
| 20260903125306 | 80 | 189 | 8.0 | 13.0 | 0.00 | 0.00 | 0.00 | 83 | 1012.5 |
| 20260903125204 | 80 | 189 | 7.0 | 13.0 | 0.00 | 0.00 | 0.00 | 83 | 1012.5 |
| 20260903125104 | 80 | 189 | 7.0 | 13.0 | 0.00 | 0.00 | 0.00 | 83 | 1012.5 |
| 20260903124904 | 80 | 188 | 7.0 | 13.0 | 0.00 | 0.00 | 0.00 | 83 | 1012.5 |
| 20260903124806 | 80 | 190 | 7.0 | 13.0 | 0.00 | 0.00 | 0.00 | 83 | 1012.5 |
| 20260903124504 | 80 | 191 | 7.0 | 13.0 | 0.00 | 0.00 | 0.00 | 83 | 1012.5 |
| 20260903124306 | 80 | 190 | 6.0 | 12.0 | 0.00 | 0.00 | 0.00 | 84 | 1012.4 |
| 20260903124204 | 80 | 189 | 6.0 | 12.0 | 0.00 | 0.00 | 0.00 | 84 | 1012.5 |
| 20260903124104 | 79 | 189 | 7.0 | 12.0 | 0.00 | 0.00 | 0.00 | 84 | 1012.5 |
| 20260903123805 | 79 | 186 | 7.0 | 12.0 | 0.00 | 0.00 | 0.00 | 84 | 1012.4 |
| 20260903123704 | 79 | 187 | 7.0 | 12.0 | 0.00 | 0.00 | 0.00 | 84 | 1012.4 |
| 20260903123604 | 79 | 187 | 7.0 | 12.0 | 0.00 | 0.00 | 0.00 | 84 | 1012.4 |
| 20260903123504 | 79 | 187 | 6.0 | 12.0 | 0.00 | 0.00 | 0.00 | 84 | 1012.4 |
| 20260903123305 | 79 | 189 | 6.0 | 12.0 | 0.00 | 0.00 | 0.00 | 84 | 1012.4 |
| 20260903123204 | 79 | 190 | 6.0 | 12.0 | 0.00 | 0.00 | 0.00 | 84 | 1012.4 |
| 20260903123004 | 79 | 191 | 6.0 | 12.0 | 0.00 | 0.00 | 0.00 | 84 | 1012.3 |
| 20260903122905 | 79 | 193 | 6.0 | 12.0 | 0.00 | 0.00 | 0.00 | 84 | 1012.4 |
| 20260903122804 | 79 | 193 | 6.0 | 12.0 | 0.00 | 0.00 | 0.00 | 84 | 1012.3 |
| 20260903122604 | 79 | 193 | 6.0 | 12.0 | 0.00 | 0.00 | 0.00 | 84 | 1012.3 |
| 20260903122504 | 79 | 194 | 6.0 | 12.0 | 0.00 | 0.00 | 0.00 | 84 | 1012.3 |
| 20260903122404 | 79 | 196 | 6.0 | 12.0 | 0.00 | 0.00 | 0.00 | 84 | 1012.3 |
| 20260903122306 | 79 | 196 | 6.0 | 12.0 | 0.00 | 0.00 | 0.00 | 84 | 1012.3 |
| 20260903122204 | 79 | 195 | 6.0 | 12.0 | 0.00 | 0.00 | 0.00 | 84 | 1012.3 |
| 20260903122104 | 79 | 194 | 6.0 | 12.0 | 0.00 | 0.00 | 0.00 | 84 | 1012.3 |
| 20260903122004 | 79 | 195 | 6.0 | 12.0 | 0.00 | 0.00 | 0.00 | 84 | 1012.2 |
| 20260903121905 | 79 | 195 | 6.0 | 12.0 | 0.00 | 0.00 | 0.00 | 84 | 1012.2 |
| 20260903121704 | 79 | 195 | 6.0 | 12.0 | 0.00 | 0.00 | 0.00 | 84 | 1012.2 |
| 20260903121606 | 79 | 194 | 5.0 | 12.0 | 0.00 | 0.00 | 0.00 | 84 | 1012.2 |
| 20260903121405 | 79 | 192 | 5.0 | 12.0 | 0.00 | 0.00 | 0.00 | 84 | 1012.2 |
| 20260903121304 | 79 | 192 | 5.0 | 11.0 | 0.00 | 0.00 | 0.00 | 84 | 1012.2 |
| 20260903121105 | 79 | 192 | 5.0 | 11.0 | 0.00 | 0.00 | 0.00 | 84 | 1012.1 |
| 20260903121004 | 79 | 192 | 5.0 | 11.0 | 0.00 | 0.00 | 0.00 | 84 | 1012.2 |
| 20260903120905 | 79 | 192 | 5.0 | 9.0 | 0.00 | 0.00 | 0.00 | 84 | 1012.1 |
| 20260903120804 | 79 | 191 | 5.0 | 9.0 | 0.00 | 0.00 | 0.00 | 84 | 1012.1 |
| 20260903120705 | 79 | 192 | 5.0 | 9.0 | 0.00 | 0.00 | 0.00 | 84 | 1012.1 |
| 20260903120604 | 79 | 192 | 5.0 | 9.0 | 0.00 | 0.00 | 0.00 | 84 | 1012.1 |
| 20260903120505 | 79 | 193 | 5.0 | 9.0 | 0.00 | 0.00 | 0.00 | 84 | 1012.1 |
| 20260903120404 | 79 | 193 | 5.0 | 10.0 | 0.00 | 0.00 | 0.00 | 84 | 1012.1 |
| 20260903120305 | 79 | 194 | 6.0 | 10.0 | 0.00 | 0.00 | 0.00 | 84 | 1012.1 |
| 20260903120204 | 79 | 195 | 6.0 | 10.0 | 0.00 | 0.00 | 0.00 | 84 | 1012.0 |
| 20260903120104 | 79 | 194 | 6.0 | 10.0 | 0.00 | 0.00 | 0.00 | 84 | 1012.1 |
| 20260903120004 | 79 | 194 | 6.0 | 10.0 | 0.00 | 0.00 | 0.00 | 84 | 1012.1 |
| 20260903115906 | 79 | 195 | 6.0 | 10.0 | 0.00 | 0.00 | 0.00 | 84 | 1012.1 |
| 20260903115804 | 79 | 197 | 6.0 | 10.0 | 0.00 | 0.00 | 0.00 | 84 | 1012.1 |
| 20260903115705 | 79 | 197 | 6.0 | 10.0 | 0.00 | 0.00 | 0.00 | 84 | 1012.1 |
| 20260903115605 | 79 | 196 | 6.0 | 10.0 | 0.00 | 0.00 | 0.00 | 84 | 1012.1 |
| 20260903115505 | 79 | 195 | 6.0 | 10.0 | 0.00 | 0.00 | 0.00 | 84 | 1012.0 |
| 20260903115305 | 79 | 194 | 5.0 | 10.0 | 0.00 | 0.00 | 0.00 | 84 | 1012.0 |
| 20260903115104 | 79 | 193 | 5.0 | 10.0 | 0.00 | 0.00 | 0.00 | 84 | 1012.0 |
| 20260903115004 | 79 | 192 | 5.0 | 10.0 | 0.00 | 0.00 | 0.00 | 84 | 1012.1 |
| 20260903114904 | 79 | 189 | 5.0 | 10.0 | 0.00 | 0.00 | 0.00 | 84 | 1012.1 |
| 20260903114804 | 79 | 188 | 5.0 | 10.0 | 0.00 | 0.00 | 0.00 | 84 | 1012.1 |
| 20260903114705 | 79 | 187 | 5.0 | 10.0 | 0.00 | 0.00 | 0.00 | 84 | 1012.1 |
| 20260903114604 | 79 | 185 | 5.0 | 9.0 | 0.00 | 0.00 | 0.00 | 84 | 1012.1 |
| 20260903114505 | 79 | 185 | 5.0 | 9.0 | 0.00 | 0.00 | 0.00 | 84 | 1012.1 |
| 20260903114306 | 79 | 183 | 6.0 | 10.0 | 0.00 | 0.00 | 0.00 | 84 | 1012.1 |
| 20260903114204 | 79 | 183 | 5.0 | 10.0 | 0.00 | 0.00 | 0.00 | 84 | 1012.2 |
| 20260903114104 | 79 | 182 | 5.0 | 10.0 | 0.00 | 0.00 | 0.00 | 84 | 1012.1 |
| 20260903113904 | 79 | 182 | 6.0 | 10.0 | 0.00 | 0.00 | 0.00 | 84 | 1012.2 |
| 20260903113805 | 79 | 181 | 6.0 | 11.0 | 0.00 | 0.00 | 0.00 | 84 | 1012.2 |
| 20260903113704 | 79 | 178 | 6.0 | 11.0 | 0.00 | 0.00 | 0.00 | 84 | 1012.2 |
| 20260903113605 | 79 | 178 | 6.0 | 11.0 | 0.00 | 0.00 | 0.00 | 84 | 1012.2 |
| 20260903113504 | 79 | 178 | 6.0 | 11.0 | 0.00 | 0.00 | 0.00 | 84 | 1012.1 |
| 20260903113404 | 79 | 177 | 6.0 | 11.0 | 0.00 | 0.00 | 0.00 | 84 | 1012.1 |
| 20260903113304 | 79 | 176 | 6.0 | 11.0 | 0.00 | 0.00 | 0.00 | 84 | 1012.2 |
| 20260903113205 | 79 | 175 | 6.0 | 11.0 | 0.00 | 0.00 | 0.00 | 84 | 1012.2 |
| 20260903113104 | 79 | 175 | 6.0 | 11.0 | 0.00 | 0.00 | 0.00 | 84 | 1012.2 |
| 20260903113004 | 79 | 175 | 6.0 | 11.0 | 0.00 | 0.00 | 0.00 | 84 | 1012.1 |
| 20260903112704 | 79 | 175 | 6.0 | 10.0 | 0.00 | 0.00 | 0.00 | 85 | 1012.2 |
| 20260903112606 | 79 | 174 | 6.0 | 10.0 | 0.00 | 0.00 | 0.00 | 85 | 1012.1 |
| 20260903112404 | 78 | 172 | 6.0 | 10.0 | 0.00 | 0.00 | 0.00 | 85 | 1012.1 |
| 20260903112204 | 79 | 171 | 5.0 | 10.0 | 0.00 | 0.00 | 0.00 | 85 | 1012.2 |
| 20260903112004 | 78 | 168 | 5.0 | 10.0 | 0.00 | 0.00 | 0.00 | 85 | 1012.2 |
| 20260903111905 | 78 | 165 | 6.0 | 10.0 | 0.00 | 0.00 | 0.00 | 85 | 1012.2 |
| 20260903111804 | 78 | 164 | 5.0 | 10.0 | 0.00 | 0.00 | 0.00 | 85 | 1012.2 |
| 20260903111706 | 78 | 163 | 5.0 | 10.0 | 0.00 | 0.00 | 0.00 | 85 | 1012.2 |
| 20260903111604 | 78 | 161 | 5.0 | 10.0 | 0.00 | 0.00 | 0.00 | 85 | 1012.2 |
| 20260903111504 | 78 | 159 | 5.0 | 10.0 | 0.00 | 0.00 | 0.00 | 85 | 1012.1 |
| 20260903111404 | 78 | 159 | 5.0 | 10.0 | 0.00 | 0.00 | 0.00 | 85 | 1012.2 |
| 20260903111304 | 78 | 161 | 5.0 | 10.0 | 0.00 | 0.00 | 0.00 | 85 | 1012.2 |
| 20260903111204 | 78 | 161 | 5.0 | 10.0 | 0.00 | 0.00 | 0.00 | 85 | 1012.3 |
| 20260903111005 | 78 | 159 | 4.0 | 10.0 | 0.00 | 0.00 | 0.00 | 85 | 1012.3 |
| 20260903110904 | 78 | 160 | 4.0 | 10.0 | 0.00 | 0.00 | 0.00 | 85 | 1012.2 |
| 20260903110804 | 78 | 161 | 4.0 | 8.0 | 0.00 | 0.00 | 0.00 | 85 | 1012.2 |
| 20260903110604 | 78 | 162 | 4.0 | 8.0 | 0.00 | 0.00 | 0.00 | 85 | 1012.2 |
| 20260903110505 | 78 | 162 | 4.0 | 8.0 | 0.00 | 0.00 | 0.00 | 85 | 1012.2 |
| 20260903110404 | 78 | 160 | 4.0 | 8.0 | 0.00 | 0.00 | 0.00 | 85 | 1012.2 |
| 20260903110304 | 78 | 160 | 4.0 | 8.0 | 0.00 | 0.00 | 0.00 | 85 | 1012.2 |
| 20260903110205 | 78 | 159 | 4.0 | 8.0 | 0.00 | 0.00 | 0.00 | 85 | 1012.2 |
| 20260903110104 | 78 | 160 | 4.0 | 8.0 | 0.00 | 0.00 | 0.00 | 85 | 1012.2 |
| 20260903110004 | 78 | 159 | 4.0 | 8.0 | 0.00 | 0.00 | 0.00 | 85 | 1012.1 |
| 20260903105904 | 78 | 161 | 4.0 | 8.0 | 0.00 | 0.00 | 0.00 | 85 | 1012.1 |
| 20260903105704 | 78 | 160 | 5.0 | 10.0 | 0.00 | 0.00 | 0.00 | 85 | 1012.1 |
| 20260903105604 | 78 | 162 | 5.0 | 10.0 | 0.00 | 0.00 | 0.00 | 85 | 1012.1 |
| 20260903105404 | 78 | 166 | 5.0 | 10.0 | 0.00 | 0.00 | 0.00 | 85 | 1012.0 |
| 20260903105306 | 78 | 166 | 5.0 | 10.0 | 0.00 | 0.00 | 0.00 | 85 | 1011.9 |
| 20260903105204 | 78 | 166 | 6.0 | 10.0 | 0.00 | 0.00 | 0.00 | 85 | 1012.0 |
| 20260903105104 | 78 | 167 | 6.0 | 10.0 | 0.00 | 0.00 | 0.00 | 85 | 1012.0 |
| 20260903105004 | 78 | 167 | 6.0 | 10.0 | 0.00 | 0.00 | 0.00 | 85 | 1011.9 |
| 20260903104806 | 78 | 168 | 5.0 | 9.0 | 0.00 | 0.00 | 0.00 | 85 | 1011.9 |
| 20260903104704 | 78 | 169 | 5.0 | 9.0 | 0.00 | 0.00 | 0.00 | 85 | 1011.9 |
| 20260903104605 | 78 | 170 | 5.0 | 9.0 | 0.00 | 0.00 | 0.00 | 85 | 1011.9 |
| 20260903104504 | 78 | 169 | 5.0 | 9.0 | 0.00 | 0.00 | 0.00 | 85 | 1011.9 |
| 20260903104404 | 78 | 170 | 5.0 | 9.0 | 0.00 | 0.00 | 0.00 | 85 | 1011.9 |
| 20260903104304 | 78 | 171 | 5.0 | 9.0 | 0.00 | 0.00 | 0.00 | 85 | 1012.0 |
| 20260903104205 | 78 | 172 | 5.0 | 9.0 | 0.00 | 0.00 | 0.00 | 85 | 1011.9 |
| 20260903104104 | 78 | 172 | 5.0 | 9.0 | 0.00 | 0.00 | 0.00 | 85 | 1011.9 |
| 20260903104005 | 78 | 172 | 5.0 | 9.0 | 0.00 | 0.00 | 0.00 | 85 | 1011.9 |
| 20260903103904 | 78 | 171 | 5.0 | 9.0 | 0.00 | 0.00 | 0.00 | 85 | 1011.9 |
| 20260903103805 | 78 | 171 | 5.0 | 9.0 | 0.00 | 0.00 | 0.00 | 85 | 1011.9 |
| 20260903103704 | 78 | 171 | 5.0 | 9.0 | 0.00 | 0.00 | 0.00 | 85 | 1011.9 |
| 20260903103504 | 78 | 169 | 4.0 | 9.0 | 0.00 | 0.00 | 0.00 | 84 | 1011.8 |
| 20260903103405 | 78 | 168 | 4.0 | 8.0 | 0.00 | 0.00 | 0.00 | 84 | 1011.8 |
| 20260903103304 | 78 | 168 | 4.0 | 8.0 | 0.00 | 0.00 | 0.00 | 84 | 1011.8 |
| 20260903103104 | 78 | 165 | 4.0 | 8.0 | 0.00 | 0.00 | 0.00 | 84 | 1011.8 |
| 20260903103005 | 78 | 165 | 4.0 | 8.0 | 0.00 | 0.00 | 0.00 | 84 | 1011.8 |
| 20260903102904 | 78 | 163 | 4.0 | 8.0 | 0.00 | 0.00 | 0.00 | 84 | 1011.8 |
| 20260903102804 | 78 | 164 | 4.0 | 9.0 | 0.00 | 0.00 | 0.00 | 84 | 1011.8 |
| 20260903102705 | 78 | 163 | 4.0 | 9.0 | 0.00 | 0.00 | 0.00 | 84 | 1011.8 |
| 20260903102604 | 78 | 163 | 4.0 | 9.0 | 0.00 | 0.00 | 0.00 | 84 | 1011.8 |
| 20260903102504 | 78 | 162 | 4.0 | 9.0 | 0.00 | 0.00 | 0.00 | 84 | 1011.8 |
| 20260903102405 | 78 | 163 | 4.0 | 9.0 | 0.00 | 0.00 | 0.00 | 84 | 1011.8 |
| 20260903102306 | 78 | 161 | 4.0 | 9.0 | 0.00 | 0.00 | 0.00 | 84 | 1011.8 |
| 20260903102204 | 78 | 160 | 4.0 | 9.0 | 0.00 | 0.00 | 0.00 | 84 | 1011.8 |
| 20260903102104 | 78 | 160 | 4.0 | 9.0 | 0.00 | 0.00 | 0.00 | 84 | 1011.9 |
| 20260903102005 | 78 | 160 | 4.0 | 9.0 | 0.00 | 0.00 | 0.00 | 84 | 1011.8 |
| 20260903101804 | 78 | 161 | 4.0 | 9.0 | 0.00 | 0.00 | 0.00 | 84 | 1011.8 |
| 20260903101704 | 78 | 162 | 4.0 | 9.0 | 0.00 | 0.00 | 0.00 | 84 | 1011.8 |
| 20260903101504 | 78 | 165 | 5.0 | 10.0 | 0.00 | 0.00 | 0.00 | 84 | 1011.8 |
| 20260903101404 | 78 | 166 | 5.0 | 10.0 | 0.00 | 0.00 | 0.00 | 84 | 1011.8 |
| 20260903101304 | 78 | 167 | 5.0 | 10.0 | 0.00 | 0.00 | 0.00 | 84 | 1011.8 |
| 20260903101204 | 78 | 169 | 5.0 | 10.0 | 0.00 | 0.00 | 0.00 | 84 | 1011.7 |
| 20260903101003 | 78 | 172 | 4.0 | 10.0 | 0.00 | 0.00 | 0.00 | 84 | 1011.7 |
| 20260903100904 | 78 | 172 | 4.0 | 10.0 | 0.00 | 0.00 | 0.00 | 84 | 1011.7 |
| 20260903100804 | 78 | 173 | 5.0 | 10.0 | 0.00 | 0.00 | 0.00 | 84 | 1011.7 |
| 20260903100704 | 78 | 174 | 4.0 | 10.0 | 0.00 | 0.00 | 0.00 | 84 | 1011.7 |
| 20260903100604 | 78 | 175 | 4.0 | 10.0 | 0.00 | 0.00 | 0.00 | 84 | 1011.6 |
| 20260903100404 | 78 | 175 | 4.0 | 8.0 | 0.00 | 0.00 | 0.00 | 83 | 1011.7 |
| 20260903100304 | 78 | 177 | 4.0 | 9.0 | 0.00 | 0.00 | 0.00 | 83 | 1011.7 |
| 20260903100205 | 78 | 178 | 4.0 | 9.0 | 0.00 | 0.00 | 0.00 | 83 | 1011.7 |
| 20260903100105 | 78 | 178 | 4.0 | 9.0 | 0.00 | 0.00 | 0.00 | 83 | 1011.6 |
| 20260903100004 | 78 | 179 | 4.0 | 9.0 | 0.00 | 0.00 | 0.00 | 83 | 1011.6 |
| 20260903095904 | 78 | 183 | 4.0 | 9.0 | 0.00 | 0.00 | 0.00 | 83 | 1011.6 |
| 20260903095804 | 78 | 183 | 4.0 | 9.0 | 0.00 | 0.00 | 0.00 | 83 | 1011.6 |
| 20260903095504 | 78 | 185 | 4.0 | 9.0 | 0.00 | 0.00 | 0.00 | 83 | 1011.6 |
| 20260903095404 | 78 | 186 | 4.0 | 9.0 | 0.00 | 0.00 | 0.00 | 83 | 1011.7 |
| 20260903095306 | 78 | 185 | 4.0 | 9.0 | 0.00 | 0.00 | 0.00 | 83 | 1011.6 |
| 20260903095204 | 78 | 185 | 4.0 | 9.0 | 0.00 | 0.00 | 0.00 | 83 | 1011.6 |
| 20260903095105 | 78 | 184 | 4.0 | 9.0 | 0.00 | 0.00 | 0.00 | 83 | 1011.6 |
| 20260903095004 | 78 | 182 | 4.0 | 9.0 | 0.00 | 0.00 | 0.00 | 83 | 1011.6 |
| 20260903094904 | 78 | 181 | 4.0 | 9.0 | 0.00 | 0.00 | 0.00 | 83 | 1011.6 |
| 20260903094804 | 78 | 179 | 4.0 | 9.0 | 0.00 | 0.00 | 0.00 | 83 | 1011.6 |
| 20260903094705 | 78 | 179 | 4.0 | 9.0 | 0.00 | 0.00 | 0.00 | 83 | 1011.6 |
| 20260903094505 | 78 | 179 | 3.0 | 9.0 | 0.00 | 0.00 | 0.00 | 83 | 1011.6 |
| 20260903094404 | 78 | 181 | 3.0 | 7.0 | 0.00 | 0.00 | 0.00 | 83 | 1011.6 |
| 20260903094305 | 78 | 179 | 3.0 | 6.0 | 0.00 | 0.00 | 0.00 | 83 | 1011.6 |
| 20260903094204 | 78 | 181 | 3.0 | 6.0 | 0.00 | 0.00 | 0.00 | 83 | 1011.6 |
| 20260903094104 | 78 | 182 | 3.0 | 6.0 | 0.00 | 0.00 | 0.00 | 83 | 1011.6 |
| 20260903093905 | 78 | 185 | 3.0 | 6.0 | 0.00 | 0.00 | 0.00 | 83 | 1011.6 |
| 20260903093804 | 78 | 186 | 3.0 | 6.0 | 0.00 | 0.00 | 0.00 | 83 | 1011.6 |
| 20260903093704 | 78 | 186 | 3.0 | 6.0 | 0.00 | 0.00 | 0.00 | 83 | 1011.6 |
| 20260903093604 | 78 | 184 | 3.0 | 6.0 | 0.00 | 0.00 | 0.00 | 83 | 1011.6 |
| 20260903093505 | 78 | 183 | 3.0 | 6.0 | 0.00 | 0.00 | 0.00 | 83 | 1011.6 |
| 20260903093404 | 78 | 182 | 3.0 | 6.0 | 0.00 | 0.00 | 0.00 | 83 | 1011.6 |
| 20260903093304 | 78 | 182 | 3.0 | 6.0 | 0.00 | 0.00 | 0.00 | 83 | 1011.7 |
| 20260903093205 | 78 | 182 | 3.0 | 6.0 | 0.00 | 0.00 | 0.00 | 83 | 1011.6 |
| 20260903093104 | 78 | 181 | 3.0 | 6.0 | 0.00 | 0.00 | 0.00 | 83 | 1011.6 |
| 20260903093005 | 78 | 182 | 3.0 | 6.0 | 0.00 | 0.00 | 0.00 | 83 | 1011.7 |
| 20260903092905 | 78 | 181 | 3.0 | 7.0 | 0.00 | 0.00 | 0.00 | 83 | 1011.7 |
| 20260903092804 | 78 | 181 | 3.0 | 7.0 | 0.00 | 0.00 | 0.00 | 83 | 1011.7 |
| 20260903092704 | 78 | 179 | 3.0 | 7.0 | 0.00 | 0.00 | 0.00 | 83 | 1011.7 |
| 20260903092604 | 78 | 181 | 3.0 | 7.0 | 0.00 | 0.00 | 0.00 | 83 | 1011.6 |
| 20260903092504 | 78 | 182 | 3.0 | 7.0 | 0.00 | 0.00 | 0.00 | 83 | 1011.7 |
| 20260903092306 | 78 | 184 | 3.0 | 7.0 | 0.00 | 0.00 | 0.00 | 83 | 1011.6 |
| 20260903092204 | 78 | 184 | 3.0 | 7.0 | 0.00 | 0.00 | 0.00 | 83 | 1011.6 |
| 20260903092104 | 78 | 186 | 3.0 | 7.0 | 0.00 | 0.00 | 0.00 | 83 | 1011.7 |
| 20260903092004 | 78 | 187 | 3.0 | 7.0 | 0.00 | 0.00 | 0.00 | 82 | 1011.7 |
| 20260903091904 | 78 | 188 | 3.0 | 7.0 | 0.00 | 0.00 | 0.00 | 82 | 1011.7 |
| 20260903091804 | 78 | 188 | 3.0 | 7.0 | 0.00 | 0.00 | 0.00 | 82 | 1011.6 |
| 20260903091704 | 78 | 191 | 3.0 | 7.0 | 0.00 | 0.00 | 0.00 | 82 | 1011.6 |
| 20260903091604 | 78 | 192 | 3.0 | 7.0 | 0.00 | 0.00 | 0.00 | 82 | 1011.7 |
| 20260903091504 | 78 | 194 | 4.0 | 7.0 | 0.00 | 0.00 | 0.00 | 82 | 1011.7 |
| 20260903091305 | 78 | 195 | 4.0 | 7.0 | 0.00 | 0.00 | 0.00 | 82 | 1011.7 |
| 20260903091204 | 78 | 194 | 4.0 | 7.0 | 0.00 | 0.00 | 0.00 | 82 | 1011.7 |
| 20260903091104 | 78 | 194 | 4.0 | 7.0 | 0.00 | 0.00 | 0.00 | 82 | 1011.7 |
| 20260903090904 | 78 | 193 | 4.0 | 7.0 | 0.00 | 0.00 | 0.00 | 82 | 1011.8 |
| 20260903090804 | 78 | 192 | 4.0 | 7.0 | 0.00 | 0.00 | 0.00 | 82 | 1011.8 |
| 20260903090704 | 78 | 191 | 4.0 | 7.0 | 0.00 | 0.00 | 0.00 | 82 | 1011.8 |
| 20260903090504 | 78 | 189 | 4.0 | 7.0 | 0.00 | 0.00 | 0.00 | 82 | 1011.8 |
| 20260903090404 | 78 | 188 | 3.0 | 7.0 | 0.00 | 0.00 | 0.00 | 82 | 1011.8 |
| 20260903090304 | 78 | 185 | 3.0 | 7.0 | 0.00 | 0.00 | 0.00 | 82 | 1011.8 |
| 20260903090205 | 78 | 186 | 3.0 | 7.0 | 0.00 | 0.00 | 0.00 | 82 | 1011.8 |
| 20260903090104 | 78 | 183 | 3.0 | 8.0 | 0.00 | 0.00 | 0.00 | 82 | 1011.9 |
| 20260903090005 | 78 | 181 | 3.0 | 8.0 | 0.00 | 0.00 | 0.00 | 82 | 1011.9 |
| 20260903085904 | 78 | 177 | 3.0 | 8.0 | 0.00 | 0.00 | 0.00 | 82 | 1011.9 |
| 20260903085805 | 78 | 177 | 3.0 | 8.0 | 0.00 | 0.00 | 0.00 | 82 | 1011.9 |
| 20260903085705 | 78 | 175 | 3.0 | 8.0 | 0.00 | 0.00 | 0.00 | 82 | 1011.9 |
| 20260903085604 | 78 | 173 | 3.0 | 8.0 | 0.00 | 0.00 | 0.00 | 82 | 1012.0 |
| 20260903085504 | 78 | 172 | 4.0 | 8.0 | 0.00 | 0.00 | 0.00 | 82 | 1012.0 |
| 20260903085404 | 78 | 170 | 4.0 | 8.0 | 0.00 | 0.00 | 0.00 | 82 | 1011.9 |
| 20260903085204 | 78 | 167 | 4.0 | 8.0 | 0.00 | 0.00 | 0.00 | 82 | 1012.0 |
| 20260903085104 | 78 | 166 | 4.0 | 7.0 | 0.00 | 0.00 | 0.00 | 82 | 1012.0 |
| 20260903085004 | 78 | 166 | 4.0 | 8.0 | 0.00 | 0.00 | 0.00 | 82 | 1011.9 |
| 20260903084903 | 78 | 166 | 4.0 | 8.0 | 0.00 | 0.00 | 0.00 | 82 | 1012.0 |
| 20260903084804 | 78 | 165 | 4.0 | 8.0 | 0.00 | 0.00 | 0.00 | 82 | 1012.0 |
| 20260903084703 | 78 | 165 | 4.0 | 8.0 | 0.00 | 0.00 | 0.00 | 82 | 1012.0 |
| 20260903084505 | 78 | 165 | 4.0 | 8.0 | 0.00 | 0.00 | 0.00 | 83 | 1012.0 |
| 20260903084404 | 78 | 165 | 4.0 | 8.0 | 0.00 | 0.00 | 0.00 | 83 | 1012.1 |
| 20260903084304 | 77 | 164 | 4.0 | 8.0 | 0.00 | 0.00 | 0.00 | 83 | 1012.0 |
| 20260903084205 | 77 | 164 | 4.0 | 8.0 | 0.00 | 0.00 | 0.00 | 83 | 1012.0 |
| 20260903084104 | 77 | 163 | 4.0 | 8.0 | 0.00 | 0.00 | 0.00 | 83 | 1012.0 |
| 20260903084004 | 77 | 162 | 4.0 | 7.0 | 0.00 | 0.00 | 0.00 | 83 | 1012.0 |
| 20260903083804 | 77 | 160 | 3.0 | 7.0 | 0.00 | 0.00 | 0.00 | 83 | 1012.0 |
| 20260903083704 | 77 | 159 | 3.0 | 6.0 | 0.00 | 0.00 | 0.00 | 83 | 1012.0 |
| 20260903083604 | 77 | 156 | 3.0 | 6.0 | 0.00 | 0.00 | 0.00 | 83 | 1012.0 |
| 20260903083504 | 77 | 156 | 3.0 | 7.0 | 0.00 | 0.00 | 0.00 | 83 | 1012.0 |
| 20260903083404 | 77 | 156 | 3.0 | 7.0 | 0.00 | 0.00 | 0.00 | 83 | 1012.0 |
| 20260903083304 | 77 | 158 | 3.0 | 7.0 | 0.00 | 0.00 | 0.00 | 83 | 1012.0 |
| 20260903083205 | 77 | 159 | 3.0 | 7.0 | 0.00 | 0.00 | 0.00 | 83 | 1012.0 |
| 20260903083104 | 77 | 160 | 3.0 | 7.0 | 0.00 | 0.00 | 0.00 | 83 | 1012.0 |
| 20260903083004 | 77 | 160 | 3.0 | 7.0 | 0.00 | 0.00 | 0.00 | 83 | 1012.0 |
| 20260903082904 | 77 | 160 | 3.0 | 7.0 | 0.00 | 0.00 | 0.00 | 83 | 1012.0 |
| 20260903082704 | 77 | 161 | 3.0 | 7.0 | 0.00 | 0.00 | 0.00 | 83 | 1012.0 |
| 20260903082605 | 77 | 161 | 3.0 | 7.0 | 0.00 | 0.00 | 0.00 | 83 | 1012.0 |
| 20260903082504 | 77 | 162 | 3.0 | 7.0 | 0.00 | 0.00 | 0.00 | 83 | 1011.9 |
| 20260903082403 | 77 | 162 | 3.0 | 6.0 | 0.00 | 0.00 | 0.00 | 84 | 1012.0 |
| 20260903082306 | 77 | 160 | 3.0 | 6.0 | 0.00 | 0.00 | 0.00 | 84 | 1012.0 |
| 20260903082204 | 77 | 158 | 3.0 | 6.0 | 0.00 | 0.00 | 0.00 | 84 | 1011.9 |
| 20260903082104 | 77 | 158 | 3.0 | 6.0 | 0.00 | 0.00 | 0.00 | 84 | 1011.9 |
| 20260903082004 | 77 | 157 | 3.0 | 6.0 | 0.00 | 0.00 | 0.00 | 84 | 1011.9 |
| 20260903081904 | 77 | 156 | 3.0 | 4.0 | 0.00 | 0.00 | 0.00 | 84 | 1011.9 |
| 20260903081804 | 77 | 155 | 2.0 | 4.0 | 0.00 | 0.00 | 0.00 | 84 | 1011.9 |
| 20260903081703 | 77 | 153 | 3.0 | 5.0 | 0.00 | 0.00 | 0.00 | 83 | 1011.9 |
| 20260903081604 | 77 | 152 | 3.0 | 5.0 | 0.00 | 0.00 | 0.00 | 83 | 1012.0 |
| 20260903081503 | 77 | 151 | 2.0 | 5.0 | 0.00 | 0.00 | 0.00 | 83 | 1012.0 |
| 20260903081404 | 77 | 149 | 2.0 | 5.0 | 0.00 | 0.00 | 0.00 | 83 | 1012.0 |
| 20260903081304 | 77 | 150 | 2.0 | 5.0 | 0.00 | 0.00 | 0.00 | 83 | 1012.0 |
| 20260903081104 | 77 | 147 | 2.0 | 5.0 | 0.00 | 0.00 | 0.00 | 83 | 1012.1 |
| 20260903081005 | 77 | 148 | 2.0 | 5.0 | 0.00 | 0.00 | 0.00 | 83 | 1012.1 |
| 20260903080904 | 77 | 147 | 2.0 | 5.0 | 0.00 | 0.00 | 0.00 | 83 | 1012.1 |
| 20260903080804 | 77 | 148 | 2.0 | 5.0 | 0.00 | 0.00 | 0.00 | 83 | 1012.1 |
| 20260903080704 | 77 | 150 | 2.0 | 4.0 | 0.00 | 0.00 | 0.00 | 83 | 1012.1 |
| 20260903080504 | 77 | 153 | 2.0 | 5.0 | 0.00 | 0.00 | 0.00 | 83 | 1012.1 |
| 20260903080303 | 77 | 157 | 2.0 | 5.0 | 0.00 | 0.00 | 0.00 | 83 | 1012.1 |
| 20260903080104 | 77 | 160 | 3.0 | 6.0 | 0.00 | 0.00 | 0.00 | 83 | 1012.2 |
| 20260903080004 | 77 | 160 | 3.0 | 6.0 | 0.00 | 0.00 | 0.00 | 83 | 1012.2 |
| 20260903075904 | 77 | 162 | 3.0 | 6.0 | 0.00 | 0.00 | 0.00 | 83 | 1012.2 |
| 20260903075804 | 77 | 163 | 3.0 | 6.0 | 0.00 | 0.00 | 0.00 | 83 | 1012.2 |
| 20260903075704 | 77 | 164 | 3.0 | 6.0 | 0.00 | 0.00 | 0.00 | 83 | 1012.2 |
| 20260903075604 | 77 | 163 | 3.0 | 6.0 | 0.00 | 0.00 | 0.00 | 83 | 1012.2 |
| 20260903075504 | 77 | 161 | 3.0 | 6.0 | 0.00 | 0.00 | 0.00 | 83 | 1012.1 |
| 20260903075404 | 77 | 160 | 3.0 | 6.0 | 0.00 | 0.00 | 0.00 | 83 | 1012.2 |
| 20260903075306 | 77 | 158 | 3.0 | 6.0 | 0.00 | 0.00 | 0.00 | 83 | 1012.2 |
| 20260903075204 | 77 | 156 | 2.0 | 5.0 | 0.00 | 0.00 | 0.00 | 83 | 1012.2 |
| 20260903075104 | 77 | 155 | 2.0 | 5.0 | 0.00 | 0.00 | 0.00 | 83 | 1012.2 |
| 20260903075004 | 78 | 154 | 2.0 | 5.0 | 0.00 | 0.00 | 0.00 | 83 | 1012.2 |
| 20260903074903 | 77 | 151 | 2.0 | 6.0 | 0.00 | 0.00 | 0.00 | 83 | 1012.2 |
| 20260903074804 | 78 | 148 | 2.0 | 6.0 | 0.00 | 0.00 | 0.00 | 83 | 1012.1 |
| 20260903074704 | 78 | 146 | 2.0 | 6.0 | 0.00 | 0.00 | 0.00 | 83 | 1012.1 |
| 20260903074504 | 78 | 148 | 2.0 | 6.0 | 0.00 | 0.00 | 0.00 | 83 | 1012.2 |
| 20260903074403 | 78 | 148 | 2.0 | 6.0 | 0.00 | 0.00 | 0.00 | 83 | 1012.2 |
| 20260903074207 | 78 | 148 | 2.0 | 6.0 | 0.00 | 0.00 | 0.00 | 83 | 1012.1 |
| 20260903074104 | 78 | 150 | 2.0 | 6.0 | 0.00 | 0.00 | 0.00 | 83 | 1012.1 |
| 20260903074004 | 78 | 151 | 2.0 | 6.0 | 0.00 | 0.00 | 0.00 | 82 | 1012.1 |
| 20260903073904 | 78 | 152 | 2.0 | 6.0 | 0.00 | 0.00 | 0.00 | 82 | 1012.1 |
| 20260903073804 | 78 | 156 | 2.0 | 6.0 | 0.00 | 0.00 | 0.00 | 82 | 1012.2 |
| 20260903073604 | 78 | 161 | 2.0 | 6.0 | 0.00 | 0.00 | 0.00 | 82 | 1012.2 |
| 20260903073505 | 78 | 164 | 3.0 | 9.0 | 0.00 | 0.00 | 0.00 | 82 | 1012.2 |
| 20260903073404 | 78 | 166 | 3.0 | 9.0 | 0.00 | 0.00 | 0.00 | 82 | 1012.1 |
| 20260903073304 | 78 | 167 | 4.0 | 9.0 | 0.00 | 0.00 | 0.00 | 82 | 1012.1 |
| 20260903073204 | 78 | 169 | 4.0 | 9.0 | 0.00 | 0.00 | 0.00 | 82 | 1012.1 |
| 20260903073104 | 78 | 168 | 4.0 | 9.0 | 0.00 | 0.00 | 0.00 | 82 | 1012.1 |
| 20260903073005 | 78 | 169 | 4.0 | 9.0 | 0.00 | 0.00 | 0.00 | 82 | 1012.1 |
| 20260903072804 | 78 | 168 | 5.0 | 9.0 | 0.00 | 0.00 | 0.00 | 82 | 1012.1 |
| 20260903072704 | 78 | 168 | 5.0 | 9.0 | 0.00 | 0.00 | 0.00 | 82 | 1012.2 |
| 20260903072404 | 78 | 167 | 5.0 | 8.0 | 0.00 | 0.00 | 0.00 | 82 | 1012.1 |
| 20260903072306 | 78 | 167 | 5.0 | 8.0 | 0.00 | 0.00 | 0.00 | 82 | 1012.1 |
| 20260903072204 | 78 | 166 | 5.0 | 8.0 | 0.00 | 0.00 | 0.00 | 82 | 1012.1 |
| 20260903072104 | 78 | 165 | 5.0 | 8.0 | 0.00 | 0.00 | 0.00 | 82 | 1012.1 |
| 20260903072004 | 78 | 163 | 5.0 | 8.0 | 0.00 | 0.00 | 0.00 | 82 | 1012.1 |
| 20260903071904 | 78 | 163 | 5.0 | 8.0 | 0.00 | 0.00 | 0.00 | 82 | 1012.1 |
| 20260903071804 | 78 | 162 | 4.0 | 8.0 | 0.00 | 0.00 | 0.00 | 82 | 1012.1 |
| 20260903071704 | 78 | 161 | 4.0 | 8.0 | 0.00 | 0.00 | 0.00 | 82 | 1012.2 |
| 20260903071604 | 78 | 161 | 4.0 | 8.0 | 0.00 | 0.00 | 0.00 | 82 | 1012.2 |
| 20260903071504 | 78 | 160 | 4.0 | 8.0 | 0.00 | 0.00 | 0.00 | 82 | 1012.2 |
| 20260903071404 | 78 | 159 | 4.0 | 8.0 | 0.00 | 0.00 | 0.00 | 82 | 1012.2 |
| 20260903071303 | 78 | 160 | 4.0 | 8.0 | 0.00 | 0.00 | 0.00 | 82 | 1012.2 |
| 20260903071204 | 78 | 159 | 4.0 | 8.0 | 0.00 | 0.00 | 0.00 | 82 | 1012.2 |
| 20260903071103 | 78 | 160 | 4.0 | 8.0 | 0.00 | 0.00 | 0.00 | 81 | 1012.2 |
| 20260903071004 | 78 | 160 | 3.0 | 8.0 | 0.00 | 0.00 | 0.00 | 81 | 1012.3 |
| 20260903070903 | 78 | 160 | 3.0 | 8.0 | 0.00 | 0.00 | 0.00 | 81 | 1012.2 |
| 20260903070804 | 78 | 161 | 4.0 | 8.0 | 0.00 | 0.00 | 0.00 | 81 | 1012.3 |
| 20260903070703 | 78 | 160 | 4.0 | 8.0 | 0.00 | 0.00 | 0.00 | 81 | 1012.3 |
| 20260903070604 | 78 | 160 | 4.0 | 8.0 | 0.00 | 0.00 | 0.00 | 81 | 1012.3 |
| 20260903070503 | 78 | 159 | 4.0 | 8.0 | 0.00 | 0.00 | 0.00 | 81 | 1012.3 |
| 20260903070404 | 78 | 158 | 4.0 | 8.0 | 0.00 | 0.00 | 0.00 | 81 | 1012.3 |
| 20260903070303 | 78 | 155 | 4.0 | 8.0 | 0.00 | 0.00 | 0.00 | 81 | 1012.3 |
| 20260903070204 | 78 | 156 | 4.0 | 8.0 | 0.00 | 0.00 | 0.00 | 81 | 1012.3 |
| 20260903070103 | 78 | 155 | 4.0 | 8.0 | 0.00 | 0.00 | 0.00 | 81 | 1012.3 |
| 20260903070004 | 78 | 154 | 4.0 | 8.0 | 0.00 | 0.00 | 0.00 | 81 | 1012.3 |
| 20260903065904 | 78 | 153 | 4.0 | 8.0 | 0.00 | 0.00 | 0.00 | 81 | 1012.3 |
| 20260903065805 | 78 | 151 | 4.0 | 8.0 | 0.00 | 0.00 | 0.00 | 81 | 1012.3 |
| 20260903065704 | 78 | 152 | 4.0 | 9.0 | 0.00 | 0.00 | 0.00 | 81 | 1012.4 |
| 20260903065604 | 78 | 149 | 4.0 | 9.0 | 0.00 | 0.00 | 0.00 | 81 | 1012.4 |
| 20260903065504 | 78 | 149 | 4.0 | 9.0 | 0.00 | 0.00 | 0.00 | 81 | 1012.4 |
| 20260903065404 | 78 | 149 | 4.0 | 9.0 | 0.00 | 0.00 | 0.00 | 80 | 1012.4 |
| 20260903065306 | 78 | 151 | 4.0 | 9.0 | 0.00 | 0.00 | 0.00 | 80 | 1012.4 |
| 20260903065204 | 78 | 150 | 4.0 | 9.0 | 0.00 | 0.00 | 0.00 | 80 | 1012.4 |
| 20260903065004 | 78 | 151 | 4.0 | 9.0 | 0.00 | 0.00 | 0.00 | 80 | 1012.5 |
| 20260903064903 | 78 | 152 | 4.0 | 9.0 | 0.00 | 0.00 | 0.00 | 80 | 1012.5 |
| 20260903064704 | 78 | 153 | 4.0 | 9.0 | 0.00 | 0.00 | 0.00 | 80 | 1012.5 |
| 20260903064604 | 78 | 153 | 4.0 | 9.0 | 0.00 | 0.00 | 0.00 | 80 | 1012.5 |
| 20260903064504 | 78 | 153 | 4.0 | 9.0 | 0.00 | 0.00 | 0.00 | 80 | 1012.5 |
| 20260903064404 | 78 | 152 | 4.0 | 9.0 | 0.00 | 0.00 | 0.00 | 80 | 1012.5 |
| 20260903064304 | 78 | 152 | 4.0 | 9.0 | 0.00 | 0.00 | 0.00 | 80 | 1012.5 |
| 20260903064204 | 78 | 151 | 4.0 | 9.0 | 0.00 | 0.00 | 0.00 | 80 | 1012.5 |
| 20260903064104 | 79 | 151 | 4.0 | 9.0 | 0.00 | 0.00 | 0.00 | 80 | 1012.5 |
| 20260903064005 | 79 | 150 | 4.0 | 9.0 | 0.00 | 0.00 | 0.00 | 79 | 1012.5 |
| 20260903063904 | 79 | 149 | 4.0 | 9.0 | 0.00 | 0.00 | 0.00 | 79 | 1012.5 |
| 20260903063804 | 78 | 149 | 4.0 | 9.0 | 0.00 | 0.00 | 0.00 | 79 | 1012.6 |
| 20260903063704 | 79 | 149 | 4.0 | 9.0 | 0.00 | 0.00 | 0.00 | 79 | 1012.6 |
| 20260903063604 | 79 | 149 | 4.0 | 9.0 | 0.00 | 0.00 | 0.00 | 79 | 1012.5 |
| 20260903063504 | 79 | 149 | 4.0 | 9.0 | 0.00 | 0.00 | 0.00 | 79 | 1012.6 |
| 20260903063404 | 79 | 148 | 4.0 | 9.0 | 0.00 | 0.00 | 0.00 | 79 | 1012.6 |
| 20260903063204 | 79 | 148 | 4.0 | 9.0 | 0.00 | 0.00 | 0.00 | 79 | 1012.6 |
| 20260903063103 | 79 | 148 | 4.0 | 9.0 | 0.00 | 0.00 | 0.00 | 79 | 1012.6 |
| 20260903063004 | 79 | 148 | 4.0 | 10.0 | 0.00 | 0.00 | 0.00 | 78 | 1012.5 |
| 20260903062903 | 79 | 148 | 5.0 | 10.0 | 0.00 | 0.00 | 0.00 | 78 | 1012.6 |
| 20260903062804 | 79 | 148 | 5.0 | 10.0 | 0.00 | 0.00 | 0.00 | 78 | 1012.6 |
| 20260903062703 | 79 | 146 | 5.0 | 11.0 | 0.00 | 0.00 | 0.00 | 78 | 1012.7 |
| 20260903062604 | 79 | 146 | 5.0 | 11.0 | 0.00 | 0.00 | 0.00 | 78 | 1012.6 |
| 20260903062504 | 79 | 146 | 5.0 | 11.0 | 0.00 | 0.00 | 0.00 | 78 | 1012.7 |
| 20260903062306 | 79 | 145 | 5.0 | 11.0 | 0.00 | 0.00 | 0.00 | 78 | 1012.7 |
| 20260903062104 | 79 | 146 | 5.0 | 11.0 | 0.00 | 0.00 | 0.00 | 78 | 1012.7 |
| 20260903062004 | 79 | 145 | 5.0 | 11.0 | 0.00 | 0.00 | 0.00 | 78 | 1012.7 |
| 20260903061903 | 79 | 145 | 5.0 | 11.0 | 0.00 | 0.00 | 0.00 | 78 | 1012.7 |
| 20260903061804 | 79 | 143 | 5.0 | 11.0 | 0.00 | 0.00 | 0.00 | 77 | 1012.6 |
| 20260903061703 | 79 | 143 | 4.0 | 10.0 | 0.00 | 0.00 | 0.00 | 77 | 1012.6 |
| 20260903061604 | 79 | 143 | 4.0 | 10.0 | 0.00 | 0.00 | 0.00 | 77 | 1012.7 |
| 20260903061404 | 79 | 142 | 4.0 | 10.0 | 0.00 | 0.00 | 0.00 | 77 | 1012.7 |
| 20260903061303 | 79 | 141 | 4.0 | 10.0 | 0.00 | 0.00 | 0.00 | 77 | 1012.7 |
| 20260903061004 | 79 | 137 | 3.0 | 10.0 | 0.00 | 0.00 | 0.00 | 77 | 1012.6 |
| 20260903060904 | 79 | 136 | 4.0 | 10.0 | 0.00 | 0.00 | 0.00 | 77 | 1012.7 |
| 20260903060804 | 79 | 135 | 3.0 | 7.0 | 0.00 | 0.00 | 0.00 | 77 | 1012.7 |
| 20260903060704 | 79 | 134 | 3.0 | 7.0 | 0.00 | 0.00 | 0.00 | 77 | 1012.7 |
| 20260903060603 | 79 | 131 | 3.0 | 7.0 | 0.00 | 0.00 | 0.00 | 77 | 1012.7 |
| 20260903060504 | 79 | 129 | 3.0 | 7.0 | 0.00 | 0.00 | 0.00 | 77 | 1012.6 |
| 20260903060305 | 79 | 128 | 3.0 | 7.0 | 0.00 | 0.00 | 0.00 | 77 | 1012.7 |
| 20260903060204 | 79 | 127 | 3.0 | 7.0 | 0.00 | 0.00 | 0.00 | 77 | 1012.7 |
| 20260903060103 | 79 | 125 | 3.0 | 7.0 | 0.00 | 0.00 | 0.00 | 77 | 1012.7 |
| 20260903055903 | 79 | 122 | 3.0 | 5.0 | 0.00 | 0.00 | 0.00 | 77 | 1012.7 |
| 20260903055805 | 79 | 121 | 3.0 | 5.0 | 0.00 | 0.00 | 0.00 | 77 | 1012.7 |
| 20260903055703 | 79 | 120 | 3.0 | 5.0 | 0.00 | 0.00 | 0.00 | 77 | 1012.8 |
| 20260903055604 | 79 | 120 | 3.0 | 5.0 | 0.00 | 0.00 | 0.00 | 77 | 1012.7 |
| 20260903055404 | 79 | 119 | 3.0 | 5.0 | 0.00 | 0.00 | 0.00 | 77 | 1012.7 |
| 20260903055204 | 79 | 116 | 3.0 | 5.0 | 0.00 | 0.00 | 0.00 | 77 | 1012.7 |
| 20260903055104 | 79 | 116 | 3.0 | 5.0 | 0.00 | 0.00 | 0.00 | 77 | 1012.7 |
| 20260903055004 | 79 | 116 | 3.0 | 6.0 | 0.00 | 0.00 | 0.00 | 77 | 1012.7 |
| 20260903054903 | 79 | 117 | 3.0 | 8.0 | 0.00 | 0.00 | 0.00 | 77 | 1012.7 |
| 20260903054804 | 79 | 117 | 3.0 | 8.0 | 0.00 | 0.00 | 0.00 | 77 | 1012.7 |
| 20260903054704 | 79 | 118 | 3.0 | 8.0 | 0.00 | 0.00 | 0.00 | 76 | 1012.7 |
| 20260903054603 | 80 | 118 | 3.0 | 8.0 | 0.00 | 0.00 | 0.00 | 76 | 1012.7 |
| 20260903054504 | 80 | 118 | 3.0 | 8.0 | 0.00 | 0.00 | 0.00 | 76 | 1012.8 |
| 20260903054405 | 80 | 118 | 3.0 | 8.0 | 0.00 | 0.00 | 0.00 | 76 | 1012.7 |
| 20260903054303 | 80 | 117 | 3.0 | 8.0 | 0.00 | 0.00 | 0.00 | 76 | 1012.7 |
| 20260903054204 | 80 | 117 | 3.0 | 8.0 | 0.00 | 0.00 | 0.00 | 76 | 1012.7 |
| 20260903054103 | 80 | 118 | 3.0 | 8.0 | 0.00 | 0.00 | 0.00 | 76 | 1012.7 |
| 20260903054004 | 80 | 117 | 3.0 | 8.0 | 0.00 | 0.00 | 0.00 | 76 | 1012.7 |
| 20260903053804 | 80 | 120 | 3.0 | 6.0 | 0.00 | 0.00 | 0.00 | 76 | 1012.7 |
| 20260903053703 | 80 | 120 | 3.0 | 6.0 | 0.00 | 0.00 | 0.00 | 76 | 1012.7 |
| 20260903053604 | 80 | 121 | 3.0 | 6.0 | 0.00 | 0.00 | 0.00 | 76 | 1012.7 |
| 20260903053304 | 80 | 123 | 4.0 | 7.0 | 0.00 | 0.00 | 0.00 | 76 | 1012.8 |
| 20260903053104 | 80 | 124 | 4.0 | 8.0 | 0.00 | 0.00 | 0.00 | 75 | 1012.7 |
| 20260903052904 | 80 | 125 | 4.0 | 8.0 | 0.00 | 0.00 | 0.00 | 75 | 1012.8 |
| 20260903052604 | 80 | 122 | 4.0 | 9.0 | 0.00 | 0.00 | 0.00 | 75 | 1012.8 |
| 20260903052503 | 80 | 122 | 4.0 | 9.0 | 0.00 | 0.00 | 0.00 | 75 | 1012.8 |
| 20260903052404 | 80 | 121 | 4.0 | 9.0 | 0.00 | 0.00 | 0.00 | 75 | 1012.8 |
| 20260903052306 | 80 | 121 | 4.0 | 9.0 | 0.00 | 0.00 | 0.00 | 75 | 1012.8 |
| 20260903052203 | 80 | 122 | 4.0 | 9.0 | 0.00 | 0.00 | 0.00 | 75 | 1012.8 |
| 20260903052104 | 80 | 121 | 4.0 | 9.0 | 0.00 | 0.00 | 0.00 | 75 | 1012.8 |
| 20260903051903 | 80 | 119 | 5.0 | 9.0 | 0.00 | 0.00 | 0.00 | 75 | 1012.9 |
| 20260903051804 | 80 | 118 | 5.0 | 9.0 | 0.00 | 0.00 | 0.00 | 75 | 1012.8 |
| 20260903051703 | 80 | 117 | 5.0 | 9.0 | 0.00 | 0.00 | 0.00 | 75 | 1012.8 |
| 20260903051604 | 80 | 116 | 5.0 | 9.0 | 0.00 | 0.00 | 0.00 | 75 | 1012.8 |
| 20260903051503 | 80 | 117 | 5.0 | 9.0 | 0.00 | 0.00 | 0.00 | 75 | 1012.8 |
| 20260903051404 | 80 | 117 | 5.0 | 9.0 | 0.00 | 0.00 | 0.00 | 75 | 1012.8 |
| 20260903051205 | 80 | 115 | 5.0 | 9.0 | 0.00 | 0.00 | 0.00 | 75 | 1012.8 |
| 20260903051103 | 80 | 115 | 4.0 | 9.0 | 0.00 | 0.00 | 0.00 | 74 | 1012.7 |
| 20260903050903 | 80 | 113 | 4.0 | 9.0 | 0.00 | 0.00 | 0.00 | 74 | 1012.7 |
| 20260903050703 | 80 | 113 | 4.0 | 9.0 | 0.00 | 0.00 | 0.00 | 74 | 1012.7 |
| 20260903050504 | 80 | 115 | 4.0 | 9.0 | 0.00 | 0.00 | 0.00 | 74 | 1012.7 |
| 20260903050405 | 81 | 115 | 4.0 | 9.0 | 0.00 | 0.00 | 0.00 | 74 | 1012.7 |
| 20260903050304 | 80 | 115 | 4.0 | 8.0 | 0.00 | 0.00 | 0.00 | 74 | 1012.7 |
| 20260903050204 | 81 | 114 | 4.0 | 8.0 | 0.00 | 0.00 | 0.00 | 74 | 1012.6 |
| 20260903050104 | 81 | 113 | 4.0 | 8.0 | 0.00 | 0.00 | 0.00 | 74 | 1012.6 |
| 20260903045904 | 81 | 115 | 4.0 | 10.0 | 0.00 | 0.00 | 0.00 | 74 | 1012.6 |
| 20260903045803 | 81 | 116 | 5.0 | 10.0 | 0.00 | 0.00 | 0.00 | 74 | 1012.6 |
| 20260903045704 | 81 | 116 | 5.0 | 10.0 | 0.00 | 0.00 | 0.00 | 73 | 1012.6 |
| 20260903045603 | 81 | 115 | 5.0 | 10.0 | 0.00 | 0.00 | 0.00 | 73 | 1012.7 |